Observation data for Aiken on 11/19/2019      Previous  Date       Current Mesonet Observations  Soil Data  Daily Summary Page  Observations in Plain Language
KAI1 190600Z 24006KT 04/M02 A30 RMK A01 T00361020  RH  067%=      5-min Rain = 0
KAI1 190601Z 24006KT 04/M02 A30 RMK A01 T00351021  RH  066%=      5-min Rain = 0
KAI1 190602Z 24005KT 03/M02 A30 RMK A01 T00341024  RH  066%=      5-min Rain = 0
KAI1 190603Z 24005KT 03/M03 A30 RMK A01 T00321026  RH  066%=      5-min Rain = 0
KAI1 190604Z 24005KT 03/M02 A30 RMK A01 T00301023  RH  068%=      5-min Rain = 0
KAI1 190605Z 24005KT 03/M02 A30 RMK A01 T00311020  RH  069%=      5-min Rain = 0
KAI1 190606Z 24005KT 03/M02 A30 RMK A01 T00321018  RH  070%=      5-min Rain = 0
KAI1 190607Z 24005KT 03/M02 A30 RMK A01 T00331018  RH  070%=      5-min Rain = 0
KAI1 190608Z 24005KT 03/M02 A30 RMK A01 T00341015  RH  071%=      5-min Rain = 0
KAI1 190609Z 24005KT 04/M01 A30 RMK A01 T00351013  RH  071%=      5-min Rain = 0
KAI1 190610Z 24005KT 04/M02 A30 RMK A01 T00361015  RH  070%=      5-min Rain = 0
KAI1 190611Z 24005KT 04/M02 A30 RMK A01 T00361015  RH  069%=      5-min Rain = 0
KAI1 190612Z 24005KT 04/M01 A30 RMK A01 T00361013  RH  070%=      5-min Rain = 0
KAI1 190613Z 24005KT 04/M01 A30 RMK A01 T00381012  RH  070%=      5-min Rain = 0
KAI1 190614Z 24005KT 04/M01 A30 RMK A01 T00391013  RH  069%=      5-min Rain = 0
KAI1 190615Z 24005KT 04/M01 A30 RMK A01 T00401013  RH  069%=      5-min Rain = 0
KAI1 190616Z 25005KT 04/M01 A30 RMK A01 T00401014  RH  068%=      5-min Rain = 0
KAI1 190617Z 25005KT 04/M02 A30 RMK A01 T00391015  RH  068%=      5-min Rain = 0
KAI1 190618Z 25005KT 04/M01 A30 RMK A01 T00391014  RH  068%=      5-min Rain = 0
KAI1 190619Z 26005KT 04/M01 A30 RMK A01 T00391014  RH  068%=      5-min Rain = 0
KAI1 190620Z 26004KT 04/M02 A30 RMK A01 T00391015  RH  068%=      5-min Rain = 0
KAI1 190621Z 25004KT 04/M02 A30 RMK A01 T00381016  RH  068%=      5-min Rain = 0
KAI1 190622Z 25004KT 04/M02 A30 RMK A01 T00371016  RH  068%=      5-min Rain = 0
KAI1 190623Z 25004KT 04/M02 A30 RMK A01 T00361017  RH  068%=      5-min Rain = 0
KAI1 190624Z 25004KT 04/M02 A30 RMK A01 T00351018  RH  068%=      5-min Rain = 0
KAI1 190625Z 26004KT 03/M02 A30 RMK A01 T00341019  RH  068%=      5-min Rain = 0
KAI1 190626Z 26004KT 03/M02 A30 RMK A01 T00331019  RH  069%=      5-min Rain = 0
KAI1 190627Z 26004KT 03/M02 A30 RMK A01 T00331018  RH  069%=      5-min Rain = 0
KAI1 190628Z 27004KT 04/M02 A30 RMK A01 T00351018  RH  068%=      5-min Rain = 0
KAI1 190629Z 27004KT 04/M02 A30 RMK A01 T00371018  RH  068%=      5-min Rain = 0
KAI1 190630Z 26004KT 04/M02 A30 RMK A01 T00371019  RH  067%=      5-min Rain = 0
KAI1 190631Z 26003KT 04/M02 A30 RMK A01 T00371019  RH  067%=      5-min Rain = 0
KAI1 190632Z 26003KT 04/M02 A30 RMK A01 T00361020  RH  067%=      5-min Rain = 0
KAI1 190633Z 26003KT 04/M02 A30 RMK A01 T00361022  RH  066%=      5-min Rain = 0
KAI1 190634Z 26003KT 03/M02 A30 RMK A01 T00341022  RH  067%=      5-min Rain = 0
KAI1 190635Z 26003KT 03/M02 A30 RMK A01 T00331022  RH  067%=      5-min Rain = 0
KAI1 190636Z 26003KT 03/M02 A30 RMK A01 T00341021  RH  067%=      5-min Rain = 0
KAI1 190637Z 26003KT 03/M02 A30 RMK A01 T00341020  RH  068%=      5-min Rain = 0
KAI1 190638Z 26003KT 04/M02 A30 RMK A01 T00351018  RH  068%=      5-min Rain = 0
KAI1 190639Z 26003KT 04/M02 A30 RMK A01 T00351016  RH  069%=      5-min Rain = 0
KAI1 190640Z 25003KT 04/M01 A30 RMK A01 T00361014  RH  070%=      5-min Rain = 0
KAI1 190641Z 25003KT 04/M01 A30 RMK A01 T00371014  RH  069%=      5-min Rain = 0
KAI1 190642Z 25003KT 04/M01 A30 RMK A01 T00381014  RH  069%=      5-min Rain = 0
KAI1 190643Z 25003KT 04/M01 A30 RMK A01 T00381014  RH  069%=      5-min Rain = 0
KAI1 190644Z 25003KT 04/M01 A30 RMK A01 T00391014  RH  068%=      5-min Rain = 0
KAI1 190645Z 25003KT 04/M01 A30 RMK A01 T00401014  RH  068%=      5-min Rain = 0
KAI1 190646Z 25003KT 04/M01 A30 RMK A01 T00401014  RH  068%=      5-min Rain = 0
KAI1 190647Z 25004KT 04/M02 A30 RMK A01 T00391015  RH  067%=      5-min Rain = 0
KAI1 190648Z 25004KT 04/M02 A30 RMK A01 T00391017  RH  067%=      5-min Rain = 0
KAI1 190649Z 25004KT 04/M02 A30 RMK A01 T00381017  RH  067%=      5-min Rain = 0
KAI1 190650Z 25004KT 04/M02 A30 RMK A01 T00381018  RH  067%=      5-min Rain = 0
KAI1 190651Z 25003KT 04/M02 A30 RMK A01 T00391018  RH  066%=      5-min Rain = 0
KAI1 190652Z 25003KT 04/M02 A30 RMK A01 T00391018  RH  066%=      5-min Rain = 0
KAI1 190653Z 25002KT 04/M02 A30 RMK A01 T00391018  RH  066%=      5-min Rain = 0
KAI1 190654Z 25002KT 04/M02 A30 RMK A01 T00391017  RH  067%=      5-min Rain = 0
KAI1 190655Z 25002KT 04/M02 A30 RMK A01 T00391017  RH  067%=      5-min Rain = 0
KAI1 190656Z 26002KT 04/M02 A30 RMK A01 T00391017  RH  067%=      5-min Rain = 0
KAI1 190657Z 26002KT 04/M02 A30 RMK A01 T00391016  RH  067%=      5-min Rain = 0
KAI1 190658Z 26002KT 04/M02 A30 RMK A01 T00401016  RH  067%=      5-min Rain = 0
KAI1 190659Z 26002KT 04/M02 A30 RMK A01 T00401016  RH  067%=      5-min Rain = 0
KAI1 190700Z 26001KT 04/M02 A30 RMK A01 T00401015  RH  067%=      5-min Rain = 0
KAI1 190701Z 26001KT 04/M01 A30 RMK A01 T00411013  RH  068%=      5-min Rain = 0
KAI1 190702Z 26001KT 04/M01 A2999 RMK A01 T00411013  RH  068%=      5-min Rain = 0
KAI1 190703Z 27001KT 04/M01 A2999 RMK A01 T00411013  RH  068%=      5-min Rain = 0
KAI1 190704Z 29001KT 04/M01 A2999 RMK A01 T00401014  RH  068%=      5-min Rain = 0
KAI1 190705Z 31001KT 04/M02 A2999 RMK A01 T00371018  RH  067%=      5-min Rain = 0
KAI1 190706Z 31001KT 03/M02 A2999 RMK A01 T00341022  RH  067%=      5-min Rain = 0
KAI1 190707Z 31001KT 03/M02 A2999 RMK A01 T00321023  RH  067%=      5-min Rain = 0
KAI1 190708Z 31001KT 03/M02 A2999 RMK A01 T00301024  RH  068%=      5-min Rain = 0
KAI1 190709Z 32001KT 03/M02 A2999 RMK A01 T00291024  RH  068%=      5-min Rain = 0
KAI1 190710Z 34002KT 03/M03 A2999 RMK A01 T00281026  RH  068%=      5-min Rain = 0
KAI1 190711Z 34002KT 03/M03 A2999 RMK A01 T00251029  RH  068%=      5-min Rain = 0
KAI1 190712Z 35002KT 02/M03 A2999 RMK A01 T00231030  RH  068%=      5-min Rain = 0
KAI1 190713Z 35002KT 02/M03 A2999 RMK A01 T00211031  RH  069%=      5-min Rain = 0
KAI1 190714Z 35001KT 02/M03 A2999 RMK A01 T00201031  RH  069%=      5-min Rain = 0
KAI1 190715Z 35001KT 02/M03 A2999 RMK A01 T00191031  RH  069%=      5-min Rain = 0
KAI1 190716Z 35001KT 02/M03 A2999 RMK A01 T00181031  RH  070%=      5-min Rain = 0
KAI1 190717Z 00001KT 02/M03 A2999 RMK A01 T00181032  RH  069%=      5-min Rain = 0
KAI1 190718Z 35001KT 02/M03 A2999 RMK A01 T00171034  RH  069%=      5-min Rain = 0
KAI1 190719Z 35001KT 02/M04 A2999 RMK A01 T00171035  RH  068%=      5-min Rain = 0
KAI1 190720Z 35001KT 02/M04 A2999 RMK A01 T00161037  RH  068%=      5-min Rain = 0
KAI1 190721Z 35001KT 02/M04 A2999 RMK A01 T00161038  RH  067%=      5-min Rain = 0
KAI1 190722Z 35001KT 02/M04 A2999 RMK A01 T00171039  RH  067%=      5-min Rain = 0
KAI1 190723Z 34002KT 02/M04 A2999 RMK A01 T00171039  RH  066%=      5-min Rain = 0
KAI1 190724Z 34002KT 02/M04 A2999 RMK A01 T00171039  RH  066%=      5-min Rain = 0
KAI1 190725Z 34002KT 02/M04 A2999 RMK A01 T00151040  RH  066%=      5-min Rain = 0
KAI1 190726Z 34003KT 01/M04 A2999 RMK A01 T00141041  RH  067%=      5-min Rain = 0
KAI1 190727Z 34003KT 01/M04 A2999 RMK A01 T00131043  RH  066%=      5-min Rain = 0
KAI1 190728Z 35003KT 01/M04 A2999 RMK A01 T00111044  RH  066%=      5-min Rain = 0
KAI1 190729Z 35003KT 01/M04 A2999 RMK A01 T00101044  RH  067%=      5-min Rain = 0
KAI1 190730Z 34004KT 01/M04 A2999 RMK A01 T00091044  RH  068%=      5-min Rain = 0
KAI1 190731Z 34004KT 01/M04 A2999 RMK A01 T00091043  RH  068%=      5-min Rain = 0
KAI1 190732Z 34004KT 01/M04 A2999 RMK A01 T00081043  RH  069%=      5-min Rain = 0
KAI1 190733Z 34004KT 01/M04 A2999 RMK A01 T00081042  RH  069%=      5-min Rain = 0
KAI1 190734Z 33004KT 01/M04 A30 RMK A01 T00071042  RH  070%=      5-min Rain = 0
KAI1 190735Z 33005KT 01/M04 A30 RMK A01 T00061042  RH  070%=      5-min Rain = 0
KAI1 190736Z 33005KT 01/M04 A30 RMK A01 T00061042  RH  070%=      5-min Rain = 0
KAI1 190737Z 32005KT 01/M04 A30 RMK A01 T00051043  RH  071%=      5-min Rain = 0
KAI1 190738Z 32005KT 01/M04 A30 RMK A01 T00051043  RH  071%=      5-min Rain = 0
KAI1 190739Z 32005KT 01/M04 A30 RMK A01 T00051042  RH  071%=      5-min Rain = 0
KAI1 190740Z 32005KT 01/M04 A30 RMK A01 T00051041  RH  071%=      5-min Rain = 0
KAI1 190741Z 32005KT 01/M04 A30 RMK A01 T00051039  RH  072%=      5-min Rain = 0
KAI1 190742Z 33006KT 01/M04 A30 RMK A01 T00051038  RH  073%=      5-min Rain = 0
KAI1 190743Z 33006KT 01/M04 A30 RMK A01 T00051038  RH  073%=      5-min Rain = 0
KAI1 190744Z 33006KT 01/M04 A30 RMK A01 T00051037  RH  073%=      5-min Rain = 0
KAI1 190745Z 33007KT 01/M04 A30 RMK A01 T00051037  RH  073%=      5-min Rain = 0
KAI1 190746Z 33007KT 01/M04 A30 RMK A01 T00051037  RH  073%=      5-min Rain = 0
KAI1 190747Z 33007KT 01/M04 A30 RMK A01 T00051037  RH  074%=      5-min Rain = 0
KAI1 190748Z 33007KT 01/M04 A30 RMK A01 T00051037  RH  074%=      5-min Rain = 0
KAI1 190749Z 32006KT 00/M04 A30 RMK A01 T00041037  RH  074%=      5-min Rain = 0
KAI1 190750Z 32006KT 00/M04 A30 RMK A01 T00041036  RH  074%=      5-min Rain = 0
KAI1 190751Z 32006KT 00/M04 A30 RMK A01 T00041036  RH  075%=      5-min Rain = 0
KAI1 190752Z 32005KT 00/M04 A30 RMK A01 T00041035  RH  075%=      5-min Rain = 0
KAI1 190753Z 32005KT 01/M03 A30 RMK A01 T00051034  RH  075%=      5-min Rain = 0
KAI1 190754Z 33005KT 01/M03 A30 RMK A01 T00071033  RH  075%=      5-min Rain = 0
KAI1 190755Z 33005KT 01/M03 A30 RMK A01 T00081033  RH  074%=      5-min Rain = 0
KAI1 190756Z 32005KT 01/M03 A30 RMK A01 T00081033  RH  074%=      5-min Rain = 0
KAI1 190757Z 32005KT 01/M03 A30 RMK A01 T00091034  RH  073%=      5-min Rain = 0
KAI1 190758Z 32005KT 01/M04 A30 RMK A01 T00091035  RH  073%=      5-min Rain = 0
KAI1 190759Z 33005KT 01/M04 A30 RMK A01 T00091035  RH  073%=      5-min Rain = 0
KAI1 190800Z 33005KT 01/M03 A30 RMK A01 T00091034  RH  073%=      5-min Rain = 0
KAI1 190801Z 33005KT 01/M03 A30 RMK A01 T00101034  RH  072%=      5-min Rain = 0
KAI1 190802Z 33005KT 01/M03 A30 RMK A01 T00111033  RH  072%=      5-min Rain = 0
KAI1 190803Z 33005KT 01/M03 A30 RMK A01 T00121033  RH  072%=      5-min Rain = 0
KAI1 190804Z 33005KT 01/M03 A30 RMK A01 T00121033  RH  072%=      5-min Rain = 0
KAI1 190805Z 32005KT 01/M03 A30 RMK A01 T00121034  RH  071%=      5-min Rain = 0
KAI1 190806Z 32006KT 01/M03 A30 RMK A01 T00131034  RH  071%=      5-min Rain = 0
KAI1 190807Z 32006KT 01/M03 A30 RMK A01 T00131034  RH  071%=      5-min Rain = 0
KAI1 190808Z 32005KT 01/M03 A30 RMK A01 T00131034  RH  071%=      5-min Rain = 0
KAI1 190809Z 32005KT 01/M04 A30 RMK A01 T00131035  RH  070%=      5-min Rain = 0
KAI1 190810Z 32005KT 01/M04 A30 RMK A01 T00121036  RH  070%=      5-min Rain = 0
KAI1 190811Z 32005KT 01/M04 A30 RMK A01 T00111037  RH  070%=      5-min Rain = 0
KAI1 190812Z 31006KT 01/M04 A30 RMK A01 T00101038  RH  070%=      5-min Rain = 0
KAI1 190813Z 31006KT 01/M04 A30 RMK A01 T00091038  RH  071%=      5-min Rain = 0
KAI1 190814Z 32006KT 01/M04 A30 RMK A01 T00081039  RH  071%=      5-min Rain = 0
KAI1 190815Z 32006KT 01/M04 A30 RMK A01 T00091038  RH  071%=      5-min Rain = 0
KAI1 190816Z 32006KT 01/M04 A30 RMK A01 T00081038  RH  071%=      5-min Rain = 0
KAI1 190817Z 32006KT 01/M04 A30 RMK A01 T00081038  RH  071%=      5-min Rain = 0
KAI1 190818Z 32006KT 01/M04 A30 RMK A01 T00091038  RH  071%=      5-min Rain = 0
KAI1 190819Z 31005KT 01/M04 A30 RMK A01 T00101038  RH  070%=      5-min Rain = 0
KAI1 190820Z 31005KT 01/M04 A30 RMK A01 T00101039  RH  070%=      5-min Rain = 0
KAI1 190821Z 31005KT 01/M04 A30 RMK A01 T00101038  RH  070%=      5-min Rain = 0
KAI1 190822Z 31005KT 01/M04 A30 RMK A01 T00101039  RH  070%=      5-min Rain = 0
KAI1 190823Z 31005KT 01/M04 A30 RMK A01 T00091039  RH  070%=      5-min Rain = 0
KAI1 190824Z 32006KT 01/M04 A30 RMK A01 T00091039  RH  070%=      5-min Rain = 0
KAI1 190825Z 32006KT 01/M04 A30 RMK A01 T00091040  RH  070%=      5-min Rain = 0
KAI1 190826Z 32006KT 01/M04 A30 RMK A01 T00101039  RH  070%=      5-min Rain = 0
KAI1 190827Z 32005KT 01/M04 A30 RMK A01 T00111038  RH  070%=      5-min Rain = 0
KAI1 190828Z 32005KT 01/M04 A30 RMK A01 T00121038  RH  070%=      5-min Rain = 0
KAI1 190829Z 32005KT 01/M04 A30 RMK A01 T00121038  RH  069%=      5-min Rain = 0
KAI1 190830Z 32005KT 01/M04 A30 RMK A01 T00121038  RH  069%=      5-min Rain = 0
KAI1 190831Z 32005KT 01/M04 A30 RMK A01 T00111039  RH  069%=      5-min Rain = 0
KAI1 190832Z 32005KT 01/M04 A30 RMK A01 T00111039  RH  069%=      5-min Rain = 0
KAI1 190833Z 32005KT 01/M04 A30 RMK A01 T00101039  RH  070%=      5-min Rain = 0
KAI1 190834Z 31005KT 01/M04 A30 RMK A01 T00091039  RH  070%=      5-min Rain = 0
KAI1 190835Z 31005KT 01/M04 A30 RMK A01 T00091039  RH  070%=      5-min Rain = 0
KAI1 190836Z 31005KT 01/M04 A30 RMK A01 T00081039  RH  071%=      5-min Rain = 0
KAI1 190837Z 31005KT 01/M04 A30 RMK A01 T00081039  RH  071%=      5-min Rain = 0
KAI1 190838Z 32005KT 01/M04 A30 RMK A01 T00081039  RH  071%=      5-min Rain = 0
KAI1 190839Z 32005KT 01/M04 A30 RMK A01 T00081039  RH  071%=      5-min Rain = 0
KAI1 190840Z 32005KT 01/M04 A30 RMK A01 T00071040  RH  071%=      5-min Rain = 0
KAI1 190841Z 32005KT 01/M04 A30 RMK A01 T00061041  RH  071%=      5-min Rain = 0
KAI1 190842Z 32005KT 01/M04 A30 RMK A01 T00051042  RH  071%=      5-min Rain = 0
KAI1 190843Z 32005KT 01/M04 A30 RMK A01 T00051042  RH  071%=      5-min Rain = 0
KAI1 190844Z 32005KT 01/M04 A30 RMK A01 T00051042  RH  070%=      5-min Rain = 0
KAI1 190845Z 32005KT 01/M04 A30 RMK A01 T00061042  RH  071%=      5-min Rain = 0
KAI1 190846Z 32005KT 01/M04 A30 RMK A01 T00051042  RH  071%=      5-min Rain = 0
KAI1 190847Z 32005KT 01/M04 A30 RMK A01 T00061042  RH  071%=      5-min Rain = 0
KAI1 190848Z 32005KT 01/M04 A30 RMK A01 T00051041  RH  071%=      5-min Rain = 0
KAI1 190849Z 32005KT 01/M04 A30 RMK A01 T00051041  RH  071%=      5-min Rain = 0
KAI1 190850Z 32005KT 01/M04 A30 RMK A01 T00051041  RH  071%=      5-min Rain = 0
KAI1 190851Z 32005KT 01/M04 A30 RMK A01 T00051040  RH  071%=      5-min Rain = 0
KAI1 190852Z 32005KT 01/M04 A30 RMK A01 T00051041  RH  071%=      5-min Rain = 0
KAI1 190853Z 32005KT 01/M04 A30 RMK A01 T00051041  RH  072%=      5-min Rain = 0
KAI1 190854Z 32005KT 01/M04 A30 RMK A01 T00051040  RH  072%=      5-min Rain = 0
KAI1 190855Z 31005KT 01/M04 A30 RMK A01 T00051040  RH  072%=      5-min Rain = 0
KAI1 190856Z 31005KT 01/M04 A3001 RMK A01 T00051039  RH  073%=      5-min Rain = 0
KAI1 190857Z 31005KT 00/M04 A3001 RMK A01 T00041038  RH  073%=      5-min Rain = 0
KAI1 190858Z 31005KT 00/M04 A3001 RMK A01 T00041038  RH  074%=      5-min Rain = 0
KAI1 190859Z 31005KT 00/M04 A3001 RMK A01 T00031037  RH  074%=      5-min Rain = 0
KAI1 190900Z 31005KT 00/M04 A3001 RMK A01 T00031036  RH  075%=      5-min Rain = 0
KAI1 190901Z 31005KT 00/M04 A3001 RMK A01 T00041036  RH  075%=      5-min Rain = 0
KAI1 190902Z 31005KT 01/M04 A3001 RMK A01 T00051035  RH  074%=      5-min Rain = 0
KAI1 190903Z 31005KT 01/M04 A3001 RMK A01 T00061035  RH  074%=      5-min Rain = 0
KAI1 190904Z 31005KT 01/M03 A3001 RMK A01 T00071034  RH  074%=      5-min Rain = 0
KAI1 190905Z 31005KT 01/M04 A3001 RMK A01 T00081035  RH  073%=      5-min Rain = 0
KAI1 190906Z 31005KT 01/M04 A3001 RMK A01 T00081036  RH  072%=      5-min Rain = 0
KAI1 190907Z 31005KT 01/M04 A3001 RMK A01 T00081037  RH  072%=      5-min Rain = 0
KAI1 190908Z 30005KT 01/M04 A3001 RMK A01 T00081037  RH  072%=      5-min Rain = 0
KAI1 190909Z 30005KT 01/M04 A3001 RMK A01 T00081037  RH  072%=      5-min Rain = 0
KAI1 190910Z 30005KT 01/M04 A3001 RMK A01 T00081037  RH  072%=      5-min Rain = 0
KAI1 190911Z 31005KT 01/M04 A3001 RMK A01 T00081038  RH  072%=      5-min Rain = 0
KAI1 190912Z 31005KT 01/M04 A3001 RMK A01 T00081038  RH  071%=      5-min Rain = 0
KAI1 190913Z 31005KT 01/M04 A3001 RMK A01 T00081038  RH  071%=      5-min Rain = 0
KAI1 190914Z 32005KT 01/M04 A3001 RMK A01 T00081038  RH  071%=      5-min Rain = 0
KAI1 190915Z 32005KT 01/M04 A3001 RMK A01 T00091037  RH  072%=      5-min Rain = 0
KAI1 190916Z 31005KT 01/M04 A3001 RMK A01 T00101036  RH  072%=      5-min Rain = 0
KAI1 190917Z 31005KT 01/M04 A3001 RMK A01 T00111035  RH  071%=      5-min Rain = 0
KAI1 190918Z 31005KT 01/M04 A3001 RMK A01 T00121035  RH  071%=      5-min Rain = 0
KAI1 190919Z 31005KT 01/M04 A3001 RMK A01 T00131035  RH  071%=      5-min Rain = 0
KAI1 190920Z 31005KT 01/M04 A3001 RMK A01 T00131035  RH  070%=      5-min Rain = 0
KAI1 190921Z 31005KT 01/M04 A3001 RMK A01 T00131036  RH  070%=      5-min Rain = 0
KAI1 190922Z 31005KT 01/M04 A3001 RMK A01 T00131035  RH  070%=      5-min Rain = 0
KAI1 190923Z 31005KT 01/M04 A3001 RMK A01 T00131035  RH  070%=      5-min Rain = 0
KAI1 190924Z 32005KT 01/M04 A3001 RMK A01 T00141035  RH  070%=      5-min Rain = 0
KAI1 190925Z 32005KT 01/M04 A30 RMK A01 T00141035  RH  070%=      5-min Rain = 0
KAI1 190926Z 32005KT 01/M04 A30 RMK A01 T00141035  RH  070%=      5-min Rain = 0
KAI1 190927Z 32005KT 01/M04 A30 RMK A01 T00131035  RH  070%=      5-min Rain = 0
KAI1 190928Z 32005KT 01/M04 A3001 RMK A01 T00131036  RH  070%=      5-min Rain = 0
KAI1 190929Z 31005KT 01/M04 A3001 RMK A01 T00121036  RH  070%=      5-min Rain = 0
KAI1 190930Z 31005KT 01/M04 A3001 RMK A01 T00121036  RH  070%=      5-min Rain = 0
KAI1 190931Z 31005KT 01/M04 A3001 RMK A01 T00121036  RH  070%=      5-min Rain = 0
KAI1 190932Z 31005KT 01/M04 A3001 RMK A01 T00111037  RH  070%=      5-min Rain = 0
KAI1 190933Z 31004KT 01/M04 A3001 RMK A01 T00111037  RH  071%=      5-min Rain = 0
KAI1 190934Z 31004KT 01/M04 A3001 RMK A01 T00101037  RH  071%=      5-min Rain = 0
KAI1 190935Z 31004KT 01/M04 A3001 RMK A01 T00101037  RH  071%=      5-min Rain = 0
KAI1 190936Z 31004KT 01/M04 A3001 RMK A01 T00101036  RH  071%=      5-min Rain = 0
KAI1 190937Z 31004KT 01/M04 A3001 RMK A01 T00091036  RH  072%=      5-min Rain = 0
KAI1 190938Z 31004KT 01/M04 A3001 RMK A01 T00091036  RH  072%=      5-min Rain = 0
KAI1 190939Z 31004KT 01/M04 A3001 RMK A01 T00091036  RH  072%=      5-min Rain = 0
KAI1 190940Z 31004KT 01/M04 A3001 RMK A01 T00081035  RH  073%=      5-min Rain = 0
KAI1 190941Z 31004KT 01/M03 A3001 RMK A01 T00091034  RH  073%=      5-min Rain = 0
KAI1 190942Z 31004KT 01/M03 A3001 RMK A01 T00091034  RH  073%=      5-min Rain = 0
KAI1 190943Z 31004KT 01/M03 A3001 RMK A01 T00091034  RH  073%=      5-min Rain = 0
KAI1 190944Z 31004KT 01/M03 A3001 RMK A01 T00091034  RH  073%=      5-min Rain = 0
KAI1 190945Z 31004KT 01/M03 A3001 RMK A01 T00101034  RH  073%=      5-min Rain = 0
KAI1 190946Z 31004KT 01/M03 A3001 RMK A01 T00101034  RH  073%=      5-min Rain = 0
KAI1 190947Z 31004KT 01/M03 A3001 RMK A01 T00101033  RH  073%=      5-min Rain = 0
KAI1 190948Z 31004KT 01/M03 A3001 RMK A01 T00101033  RH  073%=      5-min Rain = 0
KAI1 190949Z 31004KT 01/M03 A3001 RMK A01 T00111033  RH  073%=      5-min Rain = 0
KAI1 190950Z 31004KT 01/M03 A3001 RMK A01 T00111032  RH  073%=      5-min Rain = 0
KAI1 190951Z 31004KT 01/M03 A3001 RMK A01 T00121032  RH  073%=      5-min Rain = 0
KAI1 190952Z 31004KT 01/M03 A3001 RMK A01 T00121032  RH  072%=      5-min Rain = 0
KAI1 190953Z 31004KT 01/M03 A3001 RMK A01 T00121033  RH  072%=      5-min Rain = 0
KAI1 190954Z 31004KT 01/M03 A3001 RMK A01 T00121032  RH  072%=      5-min Rain = 0
KAI1 190955Z 30004KT 01/M03 A3001 RMK A01 T00121032  RH  072%=      5-min Rain = 0
KAI1 190956Z 30004KT 01/M03 A3001 RMK A01 T00131032  RH  072%=      5-min Rain = 0
KAI1 190957Z 30004KT 01/M03 A3001 RMK A01 T00131032  RH  072%=      5-min Rain = 0
KAI1 190958Z 30004KT 01/M03 A3001 RMK A01 T00131032  RH  072%=      5-min Rain = 0
KAI1 190959Z 30004KT 01/M03 A30 RMK A01 T00131032  RH  072%=      5-min Rain = 0
KAI1 191000Z 30004KT 01/M03 A30 RMK A01 T00131032  RH  072%=      5-min Rain = 0
KAI1 191001Z 30004KT 01/M03 A30 RMK A01 T00141031  RH  072%=      5-min Rain = 0
KAI1 191002Z 31004KT 02/M03 A30 RMK A01 T00151031  RH  071%=      5-min Rain = 0
KAI1 191003Z 30004KT 02/M03 A30 RMK A01 T00171031  RH  071%=      5-min Rain = 0
KAI1 191004Z 30004KT 02/M03 A30 RMK A01 T00181031  RH  070%=      5-min Rain = 0
KAI1 191005Z 30004KT 02/M03 A30 RMK A01 T00191032  RH  069%=      5-min Rain = 0
KAI1 191006Z 30004KT 02/M03 A30 RMK A01 T00191032  RH  069%=      5-min Rain = 0
KAI1 191007Z 30004KT 02/M03 A30 RMK A01 T00191032  RH  069%=      5-min Rain = 0
KAI1 191008Z 31004KT 02/M03 A30 RMK A01 T00191033  RH  069%=      5-min Rain = 0
KAI1 191009Z 31004KT 02/M03 A30 RMK A01 T00191033  RH  069%=      5-min Rain = 0
KAI1 191010Z 31004KT 02/M03 A30 RMK A01 T00191032  RH  069%=      5-min Rain = 0
KAI1 191011Z 31004KT 02/M03 A30 RMK A01 T00191032  RH  069%=      5-min Rain = 0
KAI1 191012Z 31004KT 02/M03 A30 RMK A01 T00201032  RH  068%=      5-min Rain = 0
KAI1 191013Z 31004KT 02/M03 A30 RMK A01 T00201032  RH  068%=      5-min Rain = 0
KAI1 191014Z 31004KT 02/M03 A30 RMK A01 T00201032  RH  068%=      5-min Rain = 0
KAI1 191015Z 30004KT 02/M03 A30 RMK A01 T00201033  RH  068%=      5-min Rain = 0
KAI1 191016Z 30004KT 02/M03 A30 RMK A01 T00201033  RH  068%=      5-min Rain = 0
KAI1 191017Z 30004KT 02/M03 A30 RMK A01 T00201033  RH  068%=      5-min Rain = 0
KAI1 191018Z 30004KT 02/M03 A30 RMK A01 T00191033  RH  068%=      5-min Rain = 0
KAI1 191019Z 30004KT 02/M03 A30 RMK A01 T00191033  RH  068%=      5-min Rain = 0
KAI1 191020Z 30003KT 02/M03 A30 RMK A01 T00191033  RH  068%=      5-min Rain = 0
KAI1 191021Z 29003KT 02/M03 A30 RMK A01 T00181034  RH  068%=      5-min Rain = 0
KAI1 191022Z 29003KT 02/M03 A30 RMK A01 T00181034  RH  069%=      5-min Rain = 0
KAI1 191023Z 30003KT 02/M03 A30 RMK A01 T00181034  RH  069%=      5-min Rain = 0
KAI1 191024Z 30003KT 02/M03 A30 RMK A01 T00181034  RH  069%=      5-min Rain = 0
KAI1 191025Z 30002KT 02/M03 A30 RMK A01 T00181033  RH  069%=      5-min Rain = 0
KAI1 191026Z 30002KT 02/M03 A30 RMK A01 T00191032  RH  069%=      5-min Rain = 0
KAI1 191027Z 30002KT 02/M03 A30 RMK A01 T00191032  RH  069%=      5-min Rain = 0
KAI1 191028Z 30002KT 02/M03 A2999 RMK A01 T00201031  RH  069%=      5-min Rain = 0
KAI1 191029Z 30002KT 02/M03 A2999 RMK A01 T00201032  RH  068%=      5-min Rain = 0
KAI1 191030Z 30002KT 02/M03 A2999 RMK A01 T00201032  RH  068%=      5-min Rain = 0
KAI1 191031Z 30002KT 02/M03 A2999 RMK A01 T00201032  RH  069%=      5-min Rain = 0
KAI1 191032Z 31002KT 02/M03 A2999 RMK A01 T00201032  RH  068%=      5-min Rain = 0
KAI1 191033Z 31001KT 02/M03 A2999 RMK A01 T00201032  RH  068%=      5-min Rain = 0
KAI1 191034Z 31001KT 02/M03 A2999 RMK A01 T00201034  RH  067%=      5-min Rain = 0
KAI1 191035Z 32001KT 02/M04 A2999 RMK A01 T00201035  RH  067%=      5-min Rain = 0
KAI1 191036Z 32001KT 02/M04 A2999 RMK A01 T00191037  RH  067%=      5-min Rain = 0
KAI1 191037Z 33000KT 02/M04 A2999 RMK A01 T00181037  RH  067%=      5-min Rain = 0
KAI1 191038Z 00000KT 02/M04 A2999 RMK A01 T00181036  RH  067%=      5-min Rain = 0
KAI1 191039Z 00000KT 02/M04 A2999 RMK A01 T00181036  RH  068%=      5-min Rain = 0
KAI1 191040Z 02000KT 02/M04 A2999 RMK A01 T00171037  RH  067%=      5-min Rain = 0
KAI1 191041Z 03000KT 02/M04 A2999 RMK A01 T00161038  RH  067%=      5-min Rain = 0
KAI1 191042Z 00000KT 02/M04 A2999 RMK A01 T00161038  RH  068%=      5-min Rain = 0
KAI1 191043Z 00000KT 02/M04 A2999 RMK A01 T00151038  RH  068%=      5-min Rain = 0
KAI1 191044Z 00000KT 02/M04 A2999 RMK A01 T00151037  RH  068%=      5-min Rain = 0
KAI1 191045Z 00000KT 01/M04 A2999 RMK A01 T00141037  RH  068%=      5-min Rain = 0
KAI1 191046Z 00000KT 01/M04 A2999 RMK A01 T00141038  RH  068%=      5-min Rain = 0
KAI1 191047Z 07000KT 02/M04 A2999 RMK A01 T00151037  RH  068%=      5-min Rain = 0
KAI1 191048Z 07001KT 02/M04 A2999 RMK A01 T00151037  RH  068%=      5-min Rain = 0
KAI1 191049Z 08001KT 02/M04 A2999 RMK A01 T00151037  RH  068%=      5-min Rain = 0
KAI1 191050Z 08002KT 01/M04 A2999 RMK A01 T00141038  RH  068%=      5-min Rain = 0
KAI1 191051Z 08002KT 01/M04 A2998 RMK A01 T00141037  RH  069%=      5-min Rain = 0
KAI1 191052Z 08002KT 01/M04 A2998 RMK A01 T00141037  RH  069%=      5-min Rain = 0
KAI1 191053Z 08002KT 01/M04 A2998 RMK A01 T00141037  RH  069%=      5-min Rain = 0
KAI1 191054Z 08002KT 01/M04 A2998 RMK A01 T00141038  RH  069%=      5-min Rain = 0
KAI1 191055Z 07003KT 01/M04 A2998 RMK A01 T00131038  RH  069%=      5-min Rain = 0
KAI1 191056Z 08003KT 01/M04 A2998 RMK A01 T00111039  RH  069%=      5-min Rain = 0
KAI1 191057Z 08003KT 01/M04 A2998 RMK A01 T00101039  RH  070%=      5-min Rain = 0
KAI1 191058Z 07003KT 01/M04 A2998 RMK A01 T00091039  RH  070%=      5-min Rain = 0
KAI1 191059Z 07003KT 01/M04 A2998 RMK A01 T00081039  RH  071%=      5-min Rain = 0
KAI1 191100Z 07003KT 01/M04 A2998 RMK A01 T00071039  RH  071%=      5-min Rain = 0
KAI1 191101Z 08003KT 01/M04 A2998 RMK A01 T00061039  RH  071%=      5-min Rain = 0
KAI1 191102Z 08003KT 01/M04 A2998 RMK A01 T00061039  RH  072%=      5-min Rain = 0
KAI1 191103Z 08004KT 01/M04 A2998 RMK A01 T00051039  RH  072%=      5-min Rain = 0
KAI1 191104Z 08004KT 01/M04 A2998 RMK A01 T00051039  RH  072%=      5-min Rain = 0
KAI1 191105Z 08004KT 01/M04 A2998 RMK A01 T00051039  RH  072%=      5-min Rain = 0
KAI1 191106Z 08004KT 01/M04 A2998 RMK A01 T00061039  RH  072%=      5-min Rain = 0
KAI1 191107Z 08003KT 01/M04 A2998 RMK A01 T00071039  RH  072%=      5-min Rain = 0
KAI1 191108Z 08003KT 01/M04 A2998 RMK A01 T00091038  RH  071%=      5-min Rain = 0
KAI1 191109Z 08004KT 01/M04 A2998 RMK A01 T00101039  RH  070%=      5-min Rain = 0
KAI1 191110Z 08004KT 01/M04 A2998 RMK A01 T00101039  RH  070%=      5-min Rain = 0
KAI1 191111Z 08003KT 01/M04 A2998 RMK A01 T00101039  RH  070%=      5-min Rain = 0
KAI1 191112Z 08004KT 01/M04 A2998 RMK A01 T00101039  RH  069%=      5-min Rain = 0
KAI1 191113Z 08004KT 01/M04 A2998 RMK A01 T00111039  RH  070%=      5-min Rain = 0
KAI1 191114Z 08004KT 01/M04 A2998 RMK A01 T00101039  RH  070%=      5-min Rain = 0
KAI1 191115Z 07004KT 01/M04 A2998 RMK A01 T00091039  RH  070%=      5-min Rain = 0
KAI1 191116Z 07005KT 01/M04 A2998 RMK A01 T00071040  RH  071%=      5-min Rain = 0
KAI1 191117Z 06005KT 00/M04 A2998 RMK A01 T00041041  RH  072%=      5-min Rain = 0
KAI1 191118Z 06005KT 00/M04 A2997 RMK A01 T00021042  RH  073%=      5-min Rain = 0
KAI1 191119Z 05005KT 00/04 A2997 RMK A01 T00-00-42  RH  073%=      5-min Rain = 0
KAI1 191120Z 04005KT M00/M04 A2997 RMK A01 T10021043  RH  074%=      5-min Rain = 0
KAI1 191121Z 02004KT M00/M05 A2997 RMK A01 T10031045  RH  074%=      5-min Rain = 0
KAI1 191122Z 02005KT M01/M05 A2997 RMK A01 T10051048  RH  073%=      5-min Rain = 0
KAI1 191123Z 03005KT M01/M05 A2997 RMK A01 T10071052  RH  072%=      5-min Rain = 0
KAI1 191124Z 02005KT M01/M05 A2997 RMK A01 T10071050  RH  073%=      5-min Rain = 0
KAI1 191125Z 02005KT M01/M05 A2997 RMK A01 T10071047  RH  074%=      5-min Rain = 0
KAI1 191126Z 02006KT M01/M05 A2997 RMK A01 T10081045  RH  076%=      5-min Rain = 0
KAI1 191127Z 31007KT M01/M04 A2998 RMK A01 T10071044  RH  076%=      5-min Rain = 0
KAI1 191128Z 30009KT M01/M04 A2998 RMK A01 T10071040  RH  078%=      5-min Rain = 0
KAI1 191129Z 33006KT M00/M04 A2998 RMK A01 T10041036  RH  079%=      5-min Rain = 0
KAI1 191130Z 35006KT M00/M03 A2997 RMK A01 T10021034  RH  079%=      5-min Rain = 0
KAI1 191131Z 35006KT 00/03 A2997 RMK A01 T00000-33  RH  078%=      5-min Rain = 0
KAI1 191132Z 35006KT 00/03 A2997 RMK A01 T00000-34  RH  078%=      5-min Rain = 0
KAI1 191133Z 35006KT M00/M04 A2997 RMK A01 T10011035  RH  078%=      5-min Rain = 0
KAI1 191134Z 35006KT M00/M04 A2997 RMK A01 T10011035  RH  078%=      5-min Rain = 0
KAI1 191135Z 36005KT M00/M04 A2997 RMK A01 T10021036  RH  078%=      5-min Rain = 0
KAI1 191136Z 00005KT M00/M04 A2997 RMK A01 T10021036  RH  078%=      5-min Rain = 0
KAI1 191137Z 00005KT M00/M04 A2997 RMK A01 T10021036  RH  078%=      5-min Rain = 0
KAI1 191138Z 36005KT M00/M04 A2997 RMK A01 T10021036  RH  078%=      5-min Rain = 0
KAI1 191139Z 35005KT M00/M04 A2997 RMK A01 T10021037  RH  077%=      5-min Rain = 0
KAI1 191140Z 35004KT M00/M04 A2997 RMK A01 T10021037  RH  077%=      5-min Rain = 0
KAI1 191141Z 35004KT M00/M04 A2997 RMK A01 T10021038  RH  077%=      5-min Rain = 0
KAI1 191142Z 34004KT M00/M04 A2997 RMK A01 T10021038  RH  077%=      5-min Rain = 0
KAI1 191143Z 35004KT M00/M04 A2997 RMK A01 T10021038  RH  077%=      5-min Rain = 0
KAI1 191144Z 35004KT M00/M04 A2997 RMK A01 T10031038  RH  077%=      5-min Rain = 0
KAI1 191145Z 35005KT M00/M04 A2997 RMK A01 T10031039  RH  077%=      5-min Rain = 0
KAI1 191146Z 34005KT M00/M04 A2997 RMK A01 T10021038  RH  077%=      5-min Rain = 0
KAI1 191147Z 32005KT M00/M04 A2997 RMK A01 T10021039  RH  077%=      5-min Rain = 0
KAI1 191148Z 32004KT M00/M04 A2997 RMK A01 T10031038  RH  077%=      5-min Rain = 0
KAI1 191149Z 35004KT M01/M04 A2997 RMK A01 T10051039  RH  078%=      5-min Rain = 0
KAI1 191150Z 35004KT M01/M04 A2997 RMK A01 T10051038  RH  078%=      5-min Rain = 0
KAI1 191151Z 36004KT M01/M04 A2997 RMK A01 T10051038  RH  078%=      5-min Rain = 0
KAI1 191152Z 00004KT M01/M04 A2997 RMK A01 T10051038  RH  078%=      5-min Rain = 0
KAI1 191153Z 01004KT M00/M04 A2997 RMK A01 T10041037  RH  078%=      5-min Rain = 0
KAI1 191154Z 01005KT M00/M04 A2997 RMK A01 T10031037  RH  078%=      5-min Rain = 0
KAI1 191155Z 01005KT M00/M04 A2997 RMK A01 T10021037  RH  077%=      5-min Rain = 0
KAI1 191156Z 01004KT M00/M04 A2997 RMK A01 T10011037  RH  077%=      5-min Rain = 0
KAI1 191157Z 00004KT M00/M04 A2997 RMK A01 T10011038  RH  076%=      5-min Rain = 0
KAI1 191158Z 36004KT M00/M04 A2997 RMK A01 T10011038  RH  076%=      5-min Rain = 0
KAI1 191159Z 35004KT M00/M04 A2997 RMK A01 T10011039  RH  076%=      5-min Rain = 0
KAI1 191200Z 35004KT M00/M04 A2997 RMK A01 T10021040  RH  076%=      5-min Rain = 0
KAI1 191201Z 33004KT M01/M04 A2997 RMK A01 T10051042  RH  076%=      5-min Rain = 0
KAI1 191202Z 31004KT M01/M04 A2997 RMK A01 T10081044  RH  077%=      5-min Rain = 0
KAI1 191203Z 31004KT M01/M04 A2998 RMK A01 T10111044  RH  078%=      5-min Rain = 0
KAI1 191204Z 30004KT M01/M04 A2998 RMK A01 T10121044  RH  079%=      5-min Rain = 0
KAI1 191205Z 30005KT M01/M04 A2998 RMK A01 T10131044  RH  079%=      5-min Rain = 0
KAI1 191206Z 31004KT M01/M04 A2998 RMK A01 T10141044  RH  080%=      5-min Rain = 0
KAI1 191207Z 32004KT M01/M04 A2998 RMK A01 T10141043  RH  080%=      5-min Rain = 0
KAI1 191208Z 32005KT M01/M04 A2998 RMK A01 T10141043  RH  081%=      5-min Rain = 0
KAI1 191209Z 31005KT M01/M04 A2998 RMK A01 T10131042  RH  081%=      5-min Rain = 0
KAI1 191210Z 30005KT M01/M04 A2998 RMK A01 T10131043  RH  080%=      5-min Rain = 0
KAI1 191211Z 29006KT M01/M04 A2998 RMK A01 T10131043  RH  080%=      5-min Rain = 0
KAI1 191212Z 30006KT M01/M04 A2998 RMK A01 T10131041  RH  081%=      5-min Rain = 0
KAI1 191213Z 30005KT M01/M04 A2998 RMK A01 T10121040  RH  081%=      5-min Rain = 0
KAI1 191214Z 31005KT M01/M04 A2998 RMK A01 T10101039  RH  081%=      5-min Rain = 0
KAI1 191215Z 29007KT M01/M04 A2998 RMK A01 T10091038  RH  081%=      5-min Rain = 0
KAI1 191216Z 29006KT M01/M04 A2998 RMK A01 T10081037  RH  081%=      5-min Rain = 0
KAI1 191217Z 30005KT M01/M04 A2998 RMK A01 T10081038  RH  080%=      5-min Rain = 0
KAI1 191218Z 30005KT M01/M04 A2998 RMK A01 T10081038  RH  080%=      5-min Rain = 0
KAI1 191219Z 30006KT M01/M04 A2998 RMK A01 T10081037  RH  081%=      5-min Rain = 0
KAI1 191220Z 30006KT M01/M04 A2998 RMK A01 T10071036  RH  081%=      5-min Rain = 0
KAI1 191221Z 30005KT M01/M03 A2998 RMK A01 T10061034  RH  081%=      5-min Rain = 0
KAI1 191222Z 30005KT M01/M03 A2998 RMK A01 T10051033  RH  081%=      5-min Rain = 0
KAI1 191223Z 30005KT M00/M03 A2998 RMK A01 T10041033  RH  081%=      5-min Rain = 0
KAI1 191224Z 30005KT M00/M03 A2998 RMK A01 T10031033  RH  081%=      5-min Rain = 0
KAI1 191225Z 29005KT M00/M03 A2998 RMK A01 T10021032  RH  080%=      5-min Rain = 0
KAI1 191226Z 28006KT M00/M03 A2998 RMK A01 T10021032  RH  080%=      5-min Rain = 0
KAI1 191227Z 28005KT M00/M03 A2998 RMK A01 T10021033  RH  079%=      5-min Rain = 0
KAI1 191228Z 28005KT M00/M03 A2998 RMK A01 T10021034  RH  079%=      5-min Rain = 0
KAI1 191229Z 27006KT M00/M04 A2998 RMK A01 T10041037  RH  078%=      5-min Rain = 0
KAI1 191230Z 27006KT M01/M04 A2998 RMK A01 T10071040  RH  078%=      5-min Rain = 0
KAI1 191231Z 27005KT M01/M04 A2998 RMK A01 T10091040  RH  079%=      5-min Rain = 0
KAI1 191232Z 27006KT M01/M04 A2998 RMK A01 T10111040  RH  080%=      5-min Rain = 0
KAI1 191233Z 26006KT M01/M04 A2998 RMK A01 T10121041  RH  081%=      5-min Rain = 0
KAI1 191234Z 26005KT M01/M04 A2998 RMK A01 T10141042  RH  081%=      5-min Rain = 0
KAI1 191235Z 26005KT M02/M04 A2998 RMK A01 T10151042  RH  082%=      5-min Rain = 0
KAI1 191236Z 27005KT M02/M04 A2998 RMK A01 T10151042  RH  082%=      5-min Rain = 0
KAI1 191237Z 26005KT M01/M04 A2998 RMK A01 T10131041  RH  081%=      5-min Rain = 0
KAI1 191238Z 26005KT M01/M04 A2998 RMK A01 T10121041  RH  081%=      5-min Rain = 0
KAI1 191239Z 26005KT M01/M04 A2998 RMK A01 T10111041  RH  080%=      5-min Rain = 0
KAI1 191240Z 26005KT M01/M04 A2998 RMK A01 T10101040  RH  080%=      5-min Rain = 0
KAI1 191241Z 26005KT M01/M04 A2998 RMK A01 T10081039  RH  080%=      5-min Rain = 0
KAI1 191242Z 26004KT M01/M04 A2998 RMK A01 T10071038  RH  079%=      5-min Rain = 0
KAI1 191243Z 27004KT M00/M04 A2998 RMK A01 T10041036  RH  079%=      5-min Rain = 0
KAI1 191244Z 27005KT M00/M04 A2998 RMK A01 T10031036  RH  078%=      5-min Rain = 0
KAI1 191245Z 27004KT M00/M04 A2998 RMK A01 T10011035  RH  078%=      5-min Rain = 0
KAI1 191246Z 28004KT 00/04 A2998 RMK A01 T00000-35  RH  077%=      5-min Rain = 0
KAI1 191247Z 28004KT 00/M04 A2998 RMK A01 T00021035  RH  076%=      5-min Rain = 0
KAI1 191248Z 27004KT 00/M04 A2998 RMK A01 T00021035  RH  076%=      5-min Rain = 0
KAI1 191249Z 27004KT 00/M04 A2998 RMK A01 T00031035  RH  075%=      5-min Rain = 0
KAI1 191250Z 27004KT 00/M04 A2998 RMK A01 T00041036  RH  075%=      5-min Rain = 0
KAI1 191251Z 28004KT 00/M04 A2998 RMK A01 T00041037  RH  074%=      5-min Rain = 0
KAI1 191252Z 28004KT 00/M04 A2998 RMK A01 T00031037  RH  074%=      5-min Rain = 0
KAI1 191253Z 27004KT 00/M04 A2998 RMK A01 T00021040  RH  074%=      5-min Rain = 0
KAI1 191254Z 27004KT M00/M04 A2998 RMK A01 T10011042  RH  074%=      5-min Rain = 0
KAI1 191255Z 28004KT M00/M04 A2998 RMK A01 T10041042  RH  075%=      5-min Rain = 0
KAI1 191256Z 28004KT M00/M04 A2998 RMK A01 T10041040  RH  077%=      5-min Rain = 0
KAI1 191257Z 28004KT M00/M04 A2998 RMK A01 T10041039  RH  077%=      5-min Rain = 0
KAI1 191258Z 28004KT M00/M04 A2998 RMK A01 T10041040  RH  077%=      5-min Rain = 0
KAI1 191259Z 28003KT M01/M04 A2998 RMK A01 T10051041  RH  077%=      5-min Rain = 0
KAI1 191300Z 28003KT M01/M04 A2998 RMK A01 T10061042  RH  077%=      5-min Rain = 0
KAI1 191301Z 28004KT M01/M04 A2998 RMK A01 T10071042  RH  078%=      5-min Rain = 0
KAI1 191302Z 28004KT M01/M04 A2998 RMK A01 T10081041  RH  078%=      5-min Rain = 0
KAI1 191303Z 28004KT M01/M04 A2998 RMK A01 T10091042  RH  079%=      5-min Rain = 0
KAI1 191304Z 28004KT M01/M04 A2998 RMK A01 T10101041  RH  079%=      5-min Rain = 0
KAI1 191305Z 28004KT M01/M04 A2998 RMK A01 T10101041  RH  080%=      5-min Rain = 0
KAI1 191306Z 28004KT M01/M04 A2998 RMK A01 T10101040  RH  080%=      5-min Rain = 0
KAI1 191307Z 28004KT M01/M04 A2998 RMK A01 T10091038  RH  080%=      5-min Rain = 0
KAI1 191308Z 28004KT M01/M04 A2998 RMK A01 T10081038  RH  080%=      5-min Rain = 0
KAI1 191309Z 28004KT M01/M04 A2998 RMK A01 T10071037  RH  080%=      5-min Rain = 0
KAI1 191310Z 27005KT M01/M04 A2998 RMK A01 T10051036  RH  080%=      5-min Rain = 0
KAI1 191311Z 27004KT M00/M03 A2998 RMK A01 T10021034  RH  079%=      5-min Rain = 0
KAI1 191312Z 27005KT 00/M03 A2998 RMK A01 T00011032  RH  079%=      5-min Rain = 0
KAI1 191313Z 27005KT 00/M03 A2998 RMK A01 T00041031  RH  078%=      5-min Rain = 0
KAI1 191314Z 27005KT 01/M03 A2998 RMK A01 T00071030  RH  076%=      5-min Rain = 0
KAI1 191315Z 27005KT 01/M03 A2998 RMK A01 T00101030  RH  075%=      5-min Rain = 0
KAI1 191316Z 27005KT 01/M03 A2998 RMK A01 T00111031  RH  073%=      5-min Rain = 0
KAI1 191317Z 27005KT 01/M03 A2998 RMK A01 T00131031  RH  072%=      5-min Rain = 0
KAI1 191318Z 27005KT 01/M03 A2998 RMK A01 T00141032  RH  072%=      5-min Rain = 0
KAI1 191319Z 27005KT 01/M03 A2998 RMK A01 T00141032  RH  071%=      5-min Rain = 0
KAI1 191320Z 26005KT 01/M03 A2998 RMK A01 T00141032  RH  071%=      5-min Rain = 0
KAI1 191321Z 26005KT 02/M03 A2998 RMK A01 T00151031  RH  071%=      5-min Rain = 0
KAI1 191322Z 25005KT 02/M03 A2998 RMK A01 T00151031  RH  071%=      5-min Rain = 0
KAI1 191323Z 25005KT 02/M03 A2998 RMK A01 T00161031  RH  071%=      5-min Rain = 0
KAI1 191324Z 25005KT 02/M03 A2998 RMK A01 T00161031  RH  071%=      5-min Rain = 0
KAI1 191325Z 26004KT 02/M03 A2998 RMK A01 T00161032  RH  071%=      5-min Rain = 0
KAI1 191326Z 25004KT 02/M03 A2998 RMK A01 T00151033  RH  071%=      5-min Rain = 0
KAI1 191327Z 25005KT 02/M03 A2998 RMK A01 T00161032  RH  070%=      5-min Rain = 0
KAI1 191328Z 25006KT 02/M03 A2998 RMK A01 T00181032  RH  070%=      5-min Rain = 0
KAI1 191329Z 24006KT 02/M03 A2998 RMK A01 T00181032  RH  069%=      5-min Rain = 0
KAI1 191330Z 24005KT 02/M03 A2998 RMK A01 T00171034  RH  069%=      5-min Rain = 0
KAI1 191331Z 25004KT 02/M03 A2998 RMK A01 T00151033  RH  070%=      5-min Rain = 0
KAI1 191332Z 24004KT 01/M03 A2998 RMK A01 T00141032  RH  071%=      5-min Rain = 0
KAI1 191333Z 23005KT 02/M03 A2997 RMK A01 T00161031  RH  071%=      5-min Rain = 0
KAI1 191334Z 23004KT 02/M03 A2997 RMK A01 T00171031  RH  070%=      5-min Rain = 0
KAI1 191335Z 23005KT 02/M03 A2997 RMK A01 T00191031  RH  070%=      5-min Rain = 0
KAI1 191336Z 22005KT 02/M03 A2998 RMK A01 T00221029  RH  069%=      5-min Rain = 0
KAI1 191337Z 22005KT 02/M03 A2998 RMK A01 T00241029  RH  068%=      5-min Rain = 0
KAI1 191338Z 22005KT 03/M03 A2998 RMK A01 T00251029  RH  067%=      5-min Rain = 0
KAI1 191339Z 22005KT 03/M03 A2998 RMK A01 T00271029  RH  067%=      5-min Rain = 0
KAI1 191340Z 22005KT 03/M03 A2998 RMK A01 T00281029  RH  066%=      5-min Rain = 0
KAI1 191341Z 22004KT 03/M03 A2998 RMK A01 T00281030  RH  066%=      5-min Rain = 0
KAI1 191342Z 21004KT 03/M03 A2998 RMK A01 T00281030  RH  065%=      5-min Rain = 0
KAI1 191343Z 21004KT 03/M03 A2998 RMK A01 T00281030  RH  065%=      5-min Rain = 0
KAI1 191344Z 21005KT 03/M03 A2998 RMK A01 T00291029  RH  065%=      5-min Rain = 0
KAI1 191345Z 21005KT 03/M03 A2998 RMK A01 T00291029  RH  065%=      5-min Rain = 0
KAI1 191346Z 20005KT 03/M03 A2998 RMK A01 T00291029  RH  065%=      5-min Rain = 0
KAI1 191347Z 20005KT 03/M03 A2998 RMK A01 T00311028  RH  065%=      5-min Rain = 0
KAI1 191348Z 19005KT 03/M03 A2998 RMK A01 T00321027  RH  065%=      5-min Rain = 0
KAI1 191349Z 18005KT 04/M03 A2997 RMK A01 T00351025  RH  065%=      5-min Rain = 0
KAI1 191350Z 18005KT 04/M02 A2997 RMK A01 T00371024  RH  064%=      5-min Rain = 0
KAI1 191351Z 18005KT 04/M02 A2997 RMK A01 T00391023  RH  064%=      5-min Rain = 0
KAI1 191352Z 19005KT 04/M02 A2997 RMK A01 T00421022  RH  063%=      5-min Rain = 0
KAI1 191353Z 19004KT 05/M02 A2997 RMK A01 T00451021  RH  062%=      5-min Rain = 0
KAI1 191354Z 19004KT 05/M02 A2997 RMK A01 T00471020  RH  062%=      5-min Rain = 0
KAI1 191355Z 18004KT 05/M02 A2997 RMK A01 T00501018  RH  061%=      5-min Rain = 0
KAI1 191356Z 18004KT 06/M02 A2997 RMK A01 T00551016  RH  061%=      5-min Rain = 0
KAI1 191357Z 18004KT 06/M01 A2997 RMK A01 T00591014  RH  059%=      5-min Rain = 0
KAI1 191358Z 18004KT 06/M01 A2997 RMK A01 T00631014  RH  058%=      5-min Rain = 0
KAI1 191359Z 19004KT 07/M01 A2997 RMK A01 T00661013  RH  057%=      5-min Rain = 0
KAI1 191400Z 19004KT 07/M01 A2997 RMK A01 T00681014  RH  056%=      5-min Rain = 0
KAI1 191401Z 18004KT 07/M01 A2997 RMK A01 T00691013  RH  056%=      5-min Rain = 0
KAI1 191402Z 18004KT 07/M01 A2997 RMK A01 T00701012  RH  056%=      5-min Rain = 0
KAI1 191403Z 17004KT 07/M01 A2997 RMK A01 T00731010  RH  056%=      5-min Rain = 0
KAI1 191404Z 17005KT 08/M01 A2997 RMK A01 T00751010  RH  055%=      5-min Rain = 0
KAI1 191405Z 17005KT 08/M01 A2997 RMK A01 T00781009  RH  054%=      5-min Rain = 0
KAI1 191406Z 18004KT 08/M01 A2997 RMK A01 T00801009  RH  053%=      5-min Rain = 0
KAI1 191407Z 19003KT 08/M01 A2997 RMK A01 T00811007  RH  054%=      5-min Rain = 0
KAI1 191408Z 20003KT 08/M01 A2997 RMK A01 T00801005  RH  055%=      5-min Rain = 0
KAI1 191409Z 19003KT 08/M01 A2997 RMK A01 T00771005  RH  056%=      5-min Rain = 0
KAI1 191410Z 19004KT 08/M01 A2997 RMK A01 T00761006  RH  056%=      5-min Rain = 0
KAI1 191411Z 19004KT 07/M01 A2997 RMK A01 T00741007  RH  057%=      5-min Rain = 0
KAI1 191412Z 19004KT 07/M01 A2997 RMK A01 T00721005  RH  058%=      5-min Rain = 0
KAI1 191413Z 19004KT 07/M01 A2997 RMK A01 T00711006  RH  058%=      5-min Rain = 0
KAI1 191414Z 21004KT 07/M01 A2997 RMK A01 T00711006  RH  058%=      5-min Rain = 0
KAI1 191415Z 21004KT 07/M00 A2997 RMK A01 T00701003  RH  060%=      5-min Rain = 0
KAI1 191416Z 21004KT 07/00 A2997 RMK A01 T00700002  RH  062%=      5-min Rain = 0
KAI1 191417Z 20004KT 07/00 A2997 RMK A01 T00690002  RH  062%=      5-min Rain = 0
KAI1 191418Z 19004KT 07/00 A2997 RMK A01 T00670001  RH  063%=      5-min Rain = 0
KAI1 191419Z 19004KT 07/00 A2997 RMK A01 T00670001  RH  063%=      5-min Rain = 0
KAI1 191420Z 19004KT 07/00 A2997 RMK A01 T00660001  RH  063%=      5-min Rain = 0
KAI1 191421Z 19004KT 07/00 A2997 RMK A01 T00660002  RH  064%=      5-min Rain = 0
KAI1 191422Z 18004KT 07/00 A2997 RMK A01 T00660001  RH  063%=      5-min Rain = 0
KAI1 191423Z 20003KT 07/00 A2997 RMK A01 T00660002  RH  063%=      5-min Rain = 0
KAI1 191424Z 22002KT 07/00 A2997 RMK A01 T00670002  RH  063%=      5-min Rain = 0
KAI1 191425Z 19003KT 07/00 A2997 RMK A01 T00660001  RH  063%=      5-min Rain = 0
KAI1 191426Z 17004KT 07/00 A2997 RMK A01 T00670001  RH  063%=      5-min Rain = 0
KAI1 191427Z 17004KT 07/00 A2997 RMK A01 T00670001  RH  062%=      5-min Rain = 0
KAI1 191428Z 16004KT 07/00 A2997 RMK A01 T00690003  RH  063%=      5-min Rain = 0
KAI1 191429Z 16004KT 07/00 A2997 RMK A01 T00730004  RH  062%=      5-min Rain = 0
KAI1 191430Z 16004KT 08/00 A2997 RMK A01 T00770004  RH  060%=      5-min Rain = 0
KAI1 191431Z 16004KT 08/01 A2997 RMK A01 T00820005  RH  058%=      5-min Rain = 0
KAI1 191432Z 15004KT 09/00 A2997 RMK A01 T00870004  RH  056%=      5-min Rain = 0
KAI1 191433Z 15004KT 09/01 A2997 RMK A01 T00920005  RH  055%=      5-min Rain = 0
KAI1 191434Z 15003KT 10/01 A2997 RMK A01 T00970006  RH  053%=      5-min Rain = 0
KAI1 191435Z 15002KT 10/01 A2997 RMK A01 T01000007  RH  052%=      5-min Rain = 0
KAI1 191436Z 15003KT 10/01 A2997 RMK A01 T01030007  RH  051%=      5-min Rain = 0
KAI1 191437Z 16003KT 11/01 A2997 RMK A01 T01050008  RH  051%=      5-min Rain = 0
KAI1 191438Z 16003KT 11/01 A2997 RMK A01 T01070008  RH  051%=      5-min Rain = 0
KAI1 191439Z 17002KT 11/01 A2997 RMK A01 T01080009  RH  050%=      5-min Rain = 0
KAI1 191440Z 19003KT 11/01 A2997 RMK A01 T01090008  RH  050%=      5-min Rain = 0
KAI1 191441Z 20002KT 11/01 A2997 RMK A01 T01100009  RH  050%=      5-min Rain = 0
KAI1 191442Z 19002KT 11/01 A2997 RMK A01 T01100012  RH  051%=      5-min Rain = 0
KAI1 191443Z 19003KT 11/01 A2997 RMK A01 T01100012  RH  051%=      5-min Rain = 0
KAI1 191444Z 19003KT 11/01 A2997 RMK A01 T01110013  RH  051%=      5-min Rain = 0
KAI1 191445Z 20002KT 11/02 A2997 RMK A01 T01120017  RH  052%=      5-min Rain = 0
KAI1 191446Z 19002KT 11/02 A2997 RMK A01 T01130018  RH  052%=      5-min Rain = 0
KAI1 191447Z 19003KT 11/02 A2997 RMK A01 T01140018  RH  052%=      5-min Rain = 0
KAI1 191448Z 19002KT 12/02 A2997 RMK A01 T01150017  RH  051%=      5-min Rain = 0
KAI1 191449Z 18003KT 12/02 A2997 RMK A01 T01150017  RH  051%=      5-min Rain = 0
KAI1 191450Z 18004KT 12/02 A2997 RMK A01 T01160017  RH  051%=      5-min Rain = 0
KAI1 191451Z 18004KT 12/02 A2997 RMK A01 T01170015  RH  050%=      5-min Rain = 0
KAI1 191452Z 18004KT 12/01 A2997 RMK A01 T01180013  RH  048%=      5-min Rain = 0
KAI1 191453Z 18004KT 12/01 A2997 RMK A01 T01200012  RH  048%=      5-min Rain = 0
KAI1 191454Z 19004KT 12/01 A2997 RMK A01 T01200012  RH  047%=      5-min Rain = 0
KAI1 191455Z 19003KT 12/01 A2997 RMK A01 T01210014  RH  048%=      5-min Rain = 0
KAI1 191456Z 19004KT 12/02 A2997 RMK A01 T01230015  RH  048%=      5-min Rain = 0
KAI1 191457Z 18004KT 12/01 A2997 RMK A01 T01240013  RH  047%=      5-min Rain = 0
KAI1 191458Z 17003KT 13/01 A2997 RMK A01 T01260014  RH  046%=      5-min Rain = 0
KAI1 191459Z 17003KT 13/02 A2997 RMK A01 T01280016  RH  046%=      5-min Rain = 0
KAI1 191500Z 18003KT 13/02 A2997 RMK A01 T01300016  RH  046%=      5-min Rain = 0
KAI1 191501Z 18004KT 13/02 A2997 RMK A01 T01320015  RH  045%=      5-min Rain = 0
KAI1 191502Z 18004KT 13/01 A2997 RMK A01 T01330014  RH  044%=      5-min Rain = 0
KAI1 191503Z 17005KT 13/02 A2997 RMK A01 T01330015  RH  045%=      5-min Rain = 0
KAI1 191504Z 17005KT 13/02 A2997 RMK A01 T01330015  RH  044%=      5-min Rain = 0
KAI1 191505Z 17006KT 13/02 A2997 RMK A01 T01330015  RH  045%=      5-min Rain = 0
KAI1 191506Z 17005KT 13/02 A2997 RMK A01 T01340016  RH  045%=      5-min Rain = 0
KAI1 191507Z 17007KT 14/02 A2997 RMK A01 T01360016  RH  044%=      5-min Rain = 0
KAI1 191508Z 17007KT 14/02 A2997 RMK A01 T01370015  RH  044%=      5-min Rain = 0
KAI1 191509Z 17007KT 14/02 A2997 RMK A01 T01370015  RH  044%=      5-min Rain = 0
KAI1 191510Z 17006KT 14/02 A2997 RMK A01 T01370017  RH  044%=      5-min Rain = 0
KAI1 191511Z 17007KT 14/02 A2997 RMK A01 T01380019  RH  044%=      5-min Rain = 0
KAI1 191512Z 17007KT 14/02 A2997 RMK A01 T01390018  RH  044%=      5-min Rain = 0
KAI1 191513Z 17007KT 14/02 A2997 RMK A01 T01400018  RH  044%=      5-min Rain = 0
KAI1 191514Z 17007KT 14/02 A2997 RMK A01 T01400018  RH  044%=      5-min Rain = 0
KAI1 191515Z 17007KT 14/02 A2997 RMK A01 T01420019  RH  043%=      5-min Rain = 0
KAI1 191516Z 16007KT 14/02 A2997 RMK A01 T01430020  RH  043%=      5-min Rain = 0
KAI1 191517Z 16007KT 14/02 A2997 RMK A01 T01440021  RH  043%=      5-min Rain = 0
KAI1 191518Z 16008KT 15/02 A2997 RMK A01 T01460021  RH  043%=      5-min Rain = 0
KAI1 191519Z 16008KT 15/02 A2997 RMK A01 T01470020  RH  042%=      5-min Rain = 0
KAI1 191520Z 16008KT 15/02 A2997 RMK A01 T01470020  RH  042%=      5-min Rain = 0
KAI1 191521Z 17008KT 15/02 A2997 RMK A01 T01480019  RH  042%=      5-min Rain = 0
KAI1 191522Z 17009KT 15/02 A2997 RMK A01 T01490018  RH  041%=      5-min Rain = 0
KAI1 191523Z 17009KT 15/02 A2997 RMK A01 T01500015  RH  040%=      5-min Rain = 0
KAI1 191524Z 17008KT 15/02 A2997 RMK A01 T01500015  RH  040%=      5-min Rain = 0
KAI1 191525Z 16008KT 15/02 A2997 RMK A01 T01520017  RH  040%=      5-min Rain = 0
KAI1 191526Z 17007KT 15/02 A2997 RMK A01 T01540018  RH  040%=      5-min Rain = 0
KAI1 191527Z 17009KT 16/02 A2997 RMK A01 T01560017  RH  039%=      5-min Rain = 0
KAI1 191528Z 16009KT 16/02 A2996 RMK A01 T01570016  RH  038%=      5-min Rain = 0
KAI1 191529Z 16007KT 16/02 A2996 RMK A01 T01590016  RH  038%=      5-min Rain = 0
KAI1 191530Z 16008KT 16/02 A2996 RMK A01 T01600018  RH  038%=      5-min Rain = 0
KAI1 191531Z 16008KT 16/02 A2997 RMK A01 T01620017  RH  038%=      5-min Rain = 0
KAI1 191532Z 16009KT 16/02 A2996 RMK A01 T01630016  RH  037%=      5-min Rain = 0
KAI1 191533Z 16009KT 16/02 A2996 RMK A01 T01640015  RH  036%=      5-min Rain = 0
KAI1 191534Z 16009KT 16/01 A2996 RMK A01 T01640014  RH  036%=      5-min Rain = 0
KAI1 191535Z 16009KT 17/01 A2997 RMK A01 T01650014  RH  036%=      5-min Rain = 0
KAI1 191536Z 16007KT 17/02 A2997 RMK A01 T01650016  RH  036%=      5-min Rain = 0
KAI1 191537Z 17009KT 17/02 A2997 RMK A01 T01670016  RH  036%=      5-min Rain = 0
KAI1 191538Z 16009KT 17/02 A2997 RMK A01 T01690016  RH  036%=      5-min Rain = 0
KAI1 191539Z 17009KT 17/02 A2997 RMK A01 T01700016  RH  035%=      5-min Rain = 0
KAI1 191540Z 17009KT 17/02 A2997 RMK A01 T01710016  RH  035%=      5-min Rain = 0
KAI1 191541Z 16009KT 17/02 A2997 RMK A01 T01720016  RH  035%=      5-min Rain = 0
KAI1 191542Z 16008KT 17/02 A2997 RMK A01 T01720016  RH  035%=      5-min Rain = 0
KAI1 191543Z 16009KT 17/02 A2997 RMK A01 T01740017  RH  035%=      5-min Rain = 0
KAI1 191544Z 16010KT 18/02 A2997 RMK A01 T01760015  RH  034%=      5-min Rain = 0
KAI1 191545Z 17010KT 18/01 A2997 RMK A01 T01770011  RH  033%=      5-min Rain = 0
KAI1 191546Z 17010KT 18/01 A2997 RMK A01 T01780012  RH  033%=      5-min Rain = 0
KAI1 191547Z 16008KT 18/02 A2997 RMK A01 T01800015  RH  033%=      5-min Rain = 0
KAI1 191548Z 17008KT 18/02 A2997 RMK A01 T01820015  RH  033%=      5-min Rain = 0
KAI1 191549Z 17010KT 18/01 A2997 RMK A01 T01840014  RH  032%=      5-min Rain = 0
KAI1 191550Z 17010KT 18/01 A2997 RMK A01 T01840012  RH  031%=      5-min Rain = 0
KAI1 191551Z 16008KT 18/01 A2996 RMK A01 T01840014  RH  032%=      5-min Rain = 0
KAI1 191552Z 16010KT 19/02 A2996 RMK A01 T01860015  RH  032%=      5-min Rain = 0
KAI1 191553Z 16011KT 19/01 A2996 RMK A01 T01880013  RH  031%=      5-min Rain = 0
KAI1 191554Z 16010KT 19/01 A2996 RMK A01 T01890011  RH  030%=      5-min Rain = 0
KAI1 191555Z 16011KT 19/01 A2996 RMK A01 T01900011  RH  030%=      5-min Rain = 0
KAI1 191556Z 16010KT 19/01 A2996 RMK A01 T01900010  RH  030%=      5-min Rain = 0
KAI1 191557Z 16009KT 19/01 A2996 RMK A01 T01910010  RH  030%=      5-min Rain = 0
KAI1 191558Z 16011KT 19/01 A2997 RMK A01 T01910010  RH  030%=      5-min Rain = 0
KAI1 191559Z 16010KT 19/01 A2997 RMK A01 T01900009  RH  030%=      5-min Rain = 0
KAI1 191600Z 16011KT 19/01 A2997 RMK A01 T01890011  RH  030%=      5-min Rain = 0
KAI1 191601Z 16011KT 19/01 A2997 RMK A01 T01900011  RH  030%=      5-min Rain = 0
KAI1 191602Z 16010KT 19/01 A2997 RMK A01 T01920011  RH  030%=      5-min Rain = 0
KAI1 191603Z 17012KT 19/01 A2997 RMK A01 T01930011  RH  029%=      5-min Rain = 0
KAI1 191604Z 17013KT 19/01 A2997 RMK A01 T01940010  RH  029%=      5-min Rain = 0
KAI1 191605Z 17013KT 20/01 A2997 RMK A01 T01950008  RH  029%=      5-min Rain = 0
KAI1 191606Z 17011KT 20/01 A2997 RMK A01 T01960009  RH  029%=      5-min Rain = 0
KAI1 191607Z 17014KT 20/01 A2997 RMK A01 T01970009  RH  028%=      5-min Rain = 0
KAI1 191608Z 18014KT 20/01 A2997 RMK A01 T01980006  RH  028%=      5-min Rain = 0
KAI1 191609Z 18013KT 20/01 A2997 RMK A01 T01980006  RH  028%=      5-min Rain = 0
KAI1 191610Z 18014KT 20/01 A2997 RMK A01 T01980006  RH  028%=      5-min Rain = 0
KAI1 191611Z 17014KT 20/01 A2997 RMK A01 T01990006  RH  027%=      5-min Rain = 0
KAI1 191612Z 16015KT 20/01 A2997 RMK A01 T01990005  RH  027%=      5-min Rain = 0
KAI1 191613Z 17013KT 20/01 A2997 RMK A01 T02000007  RH  027%=      5-min Rain = 0
KAI1 191614Z 17016KT 20/01 A2996 RMK A01 T02010005  RH  027%=      5-min Rain = 0
KAI1 191615Z 17014KT 20/01 A2996 RMK A01 T02010006  RH  027%=      5-min Rain = 0
KAI1 191616Z 17011KT 20/01 A2996 RMK A01 T02020009  RH  028%=      5-min Rain = 0
KAI1 191617Z 17014KT 20/01 A2996 RMK A01 T02030008  RH  027%=      5-min Rain = 0
KAI1 191618Z 17012KT 20/01 A2997 RMK A01 T02040007  RH  027%=      5-min Rain = 0
KAI1 191619Z 16014KT 21/01 A2996 RMK A01 T02050007  RH  027%=      5-min Rain = 0
KAI1 191620Z 17014KT 21/01 A2996 RMK A01 T02060006  RH  026%=      5-min Rain = 0
KAI1 191621Z 16015KT 21/01 A2996 RMK A01 T02060006  RH  026%=      5-min Rain = 0
KAI1 191622Z 16016KT 21/01 A2996 RMK A01 T02050006  RH  027%=      5-min Rain = 0
KAI1 191623Z 16017KT 21/01 A2996 RMK A01 T02050006  RH  027%=      5-min Rain = 0
KAI1 191624Z 16014KT 20/01 A2996 RMK A01 T02040007  RH  027%=      5-min Rain = 0
KAI1 191625Z 17013KT 20/01 A2996 RMK A01 T02040008  RH  027%=      5-min Rain = 0
KAI1 191626Z 17014KT 21/01 A2996 RMK A01 T02050008  RH  027%=      5-min Rain = 0
KAI1 191627Z 17014KT 20/01 A2996 RMK A01 T02040009  RH  027%=      5-min Rain = 0
KAI1 191628Z 17014KT 20/01 A2996 RMK A01 T02040010  RH  027%=      5-min Rain = 0
KAI1 191629Z 17016KT 21/01 A2996 RMK A01 T02050010  RH  027%=      5-min Rain = 0
KAI1 191630Z 17015KT 21/01 A2996 RMK A01 T02050008  RH  027%=      5-min Rain = 0
KAI1 191631Z 16015KT 21/01 A2996 RMK A01 T02060008  RH  027%=      5-min Rain = 0
KAI1 191632Z 16017KT 21/01 A2996 RMK A01 T02050007  RH  027%=      5-min Rain = 0
KAI1 191633Z 17013KT 21/01 A2996 RMK A01 T02060009  RH  027%=      5-min Rain = 0
KAI1 191634Z 17013KT 21/01 A2996 RMK A01 T02060011  RH  027%=      5-min Rain = 0
KAI1 191635Z 18014KT 21/01 A2996 RMK A01 T02070011  RH  027%=      5-min Rain = 0
KAI1 191636Z 18016KT 21/01 A2996 RMK A01 T02060010  RH  027%=      5-min Rain = 0
KAI1 191637Z 18015KT 21/01 A2996 RMK A01 T02050010  RH  027%=      5-min Rain = 0
KAI1 191638Z 18016KT 20/01 A2996 RMK A01 T02040008  RH  027%=      5-min Rain = 0
KAI1 191639Z 17015KT 20/01 A2996 RMK A01 T02030009  RH  027%=      5-min Rain = 0
KAI1 191640Z 18014KT 20/01 A2996 RMK A01 T02030011  RH  028%=      5-min Rain = 0
KAI1 191641Z 18015KT 20/01 A2996 RMK A01 T02030012  RH  028%=      5-min Rain = 0
KAI1 191642Z 18015KT 20/01 A2996 RMK A01 T02040012  RH  028%=      5-min Rain = 0
KAI1 191643Z 17016KT 20/01 A2996 RMK A01 T02030013  RH  028%=      5-min Rain = 0
KAI1 191644Z 17015KT 20/01 A2996 RMK A01 T02020014  RH  028%=      5-min Rain = 0
KAI1 191645Z 18015KT 20/01 A2996 RMK A01 T02030014  RH  028%=      5-min Rain = 0
KAI1 191646Z 18014KT 20/01 A2996 RMK A01 T02030014  RH  028%=      5-min Rain = 0
KAI1 191647Z 18013KT 20/02 A2996 RMK A01 T02040016  RH  029%=      5-min Rain = 0
KAI1 191648Z 18014KT 20/01 A2996 RMK A01 T02040014  RH  028%=      5-min Rain = 0
KAI1 191649Z 19014KT 21/01 A2996 RMK A01 T02050010  RH  027%=      5-min Rain = 0
KAI1 191650Z 18016KT 21/01 A2996 RMK A01 T02070007  RH  026%=      5-min Rain = 0
KAI1 191651Z 18015KT 21/01 A2996 RMK A01 T02060007  RH  026%=      5-min Rain = 0
KAI1 191652Z 17015KT 21/01 A2996 RMK A01 T02050007  RH  027%=      5-min Rain = 0
KAI1 191653Z 17016KT 21/01 A2996 RMK A01 T02050006  RH  027%=      5-min Rain = 0
KAI1 191654Z 18015KT 21/01 A2996 RMK A01 T02050006  RH  026%=      5-min Rain = 0
KAI1 191655Z 17016KT 21/01 A2996 RMK A01 T02050006  RH  027%=      5-min Rain = 0
KAI1 191656Z 17014KT 20/01 A2996 RMK A01 T02040007  RH  027%=      5-min Rain = 0
KAI1 191657Z 17015KT 20/01 A2996 RMK A01 T02040009  RH  027%=      5-min Rain = 0
KAI1 191658Z 17013KT 20/01 A2996 RMK A01 T02040009  RH  027%=      5-min Rain = 0
KAI1 191659Z 17012KT 20/01 A2996 RMK A01 T02040010  RH  027%=      5-min Rain = 0
KAI1 191700Z 17011KT 20/01 A2996 RMK A01 T02040012  RH  028%=      5-min Rain = 0
KAI1 191701Z 18014KT 21/01 A2996 RMK A01 T02050010  RH  027%=      5-min Rain = 0
KAI1 191702Z 17013KT 21/01 A2996 RMK A01 T02050010  RH  027%=      5-min Rain = 0
KAI1 191703Z 18012KT 21/01 A2996 RMK A01 T02050011  RH  028%=      5-min Rain = 0
KAI1 191704Z 18013KT 21/01 A2996 RMK A01 T02060012  RH  027%=      5-min Rain = 0
KAI1 191705Z 18012KT 21/01 A2996 RMK A01 T02070012  RH  027%=      5-min Rain = 0
KAI1 191706Z 18013KT 21/01 A2996 RMK A01 T02070012  RH  027%=      5-min Rain = 0
KAI1 191707Z 18011KT 21/01 A2996 RMK A01 T02060010  RH  027%=      5-min Rain = 0
KAI1 191708Z 17013KT 21/01 A2996 RMK A01 T02060012  RH  028%=      5-min Rain = 0
KAI1 191709Z 19012KT 21/01 A2995 RMK A01 T02060013  RH  028%=      5-min Rain = 0
KAI1 191710Z 18011KT 21/01 A2995 RMK A01 T02070013  RH  027%=      5-min Rain = 0
KAI1 191711Z 18012KT 21/01 A2995 RMK A01 T02080012  RH  027%=      5-min Rain = 0
KAI1 191712Z 18011KT 21/01 A2995 RMK A01 T02090012  RH  027%=      5-min Rain = 0
KAI1 191713Z 18012KT 21/01 A2995 RMK A01 T02080012  RH  027%=      5-min Rain = 0
KAI1 191714Z 20011KT 21/01 A2995 RMK A01 T02080007  RH  026%=      5-min Rain = 0
KAI1 191715Z 20012KT 21/01 A2995 RMK A01 T02080008  RH  026%=      5-min Rain = 0
KAI1 191716Z 20011KT 21/01 A2995 RMK A01 T02100009  RH  026%=      5-min Rain = 0
KAI1 191717Z 19012KT 21/01 A2995 RMK A01 T02120008  RH  026%=      5-min Rain = 0
KAI1 191718Z 19012KT 21/01 A2995 RMK A01 T02120007  RH  026%=      5-min Rain = 0
KAI1 191719Z 19011KT 21/01 A2995 RMK A01 T02110007  RH  026%=      5-min Rain = 0
KAI1 191720Z 19013KT 21/01 A2995 RMK A01 T02110009  RH  026%=      5-min Rain = 0
KAI1 191721Z 19014KT 21/01 A2995 RMK A01 T02100008  RH  026%=      5-min Rain = 0
KAI1 191722Z 19013KT 21/01 A2995 RMK A01 T02090006  RH  026%=      5-min Rain = 0
KAI1 191723Z 20011KT 21/01 A2995 RMK A01 T02080007  RH  026%=      5-min Rain = 0
KAI1 191724Z 19013KT 21/01 A2995 RMK A01 T02090009  RH  026%=      5-min Rain = 0
KAI1 191725Z 19013KT 21/01 A2995 RMK A01 T02100008  RH  026%=      5-min Rain = 0
KAI1 191726Z 18012KT 21/01 A2995 RMK A01 T02100010  RH  027%=      5-min Rain = 0
KAI1 191727Z 18014KT 21/01 A2995 RMK A01 T02110008  RH  026%=      5-min Rain = 0
KAI1 191728Z 18014KT 21/01 A2995 RMK A01 T02110007  RH  026%=      5-min Rain = 0
KAI1 191729Z 18015KT 21/01 A2995 RMK A01 T02100008  RH  026%=      5-min Rain = 0
KAI1 191730Z 19014KT 21/01 A2995 RMK A01 T02100007  RH  026%=      5-min Rain = 0
KAI1 191731Z 18014KT 21/01 A2995 RMK A01 T02090007  RH  026%=      5-min Rain = 0
KAI1 191732Z 18012KT 21/01 A2995 RMK A01 T02100008  RH  026%=      5-min Rain = 0
KAI1 191733Z 18011KT 21/01 A2995 RMK A01 T02100009  RH  026%=      5-min Rain = 0
KAI1 191734Z 18014KT 21/01 A2995 RMK A01 T02110009  RH  026%=      5-min Rain = 0
KAI1 191735Z 19014KT 21/01 A2995 RMK A01 T02110008  RH  026%=      5-min Rain = 0
KAI1 191736Z 19013KT 21/01 A2994 RMK A01 T02100008  RH  026%=      5-min Rain = 0
KAI1 191737Z 20014KT 21/01 A2994 RMK A01 T02100008  RH  026%=      5-min Rain = 0
KAI1 191738Z 20013KT 21/01 A2994 RMK A01 T02090008  RH  026%=      5-min Rain = 0
KAI1 191739Z 20013KT 21/01 A2994 RMK A01 T02090010  RH  027%=      5-min Rain = 0
KAI1 191740Z 19012KT 21/01 A2994 RMK A01 T02080009  RH  027%=      5-min Rain = 0
KAI1 191741Z 19012KT 21/01 A2994 RMK A01 T02080010  RH  027%=      5-min Rain = 0
KAI1 191742Z 18012KT 21/01 A2994 RMK A01 T02090009  RH  026%=      5-min Rain = 0
KAI1 191743Z 18011KT 21/01 A2994 RMK A01 T02100009  RH  026%=      5-min Rain = 0
KAI1 191744Z 19011KT 21/01 A2994 RMK A01 T02110011  RH  026%=      5-min Rain = 0
KAI1 191745Z 19013KT 21/01 A2994 RMK A01 T02130011  RH  026%=      5-min Rain = 0
KAI1 191746Z 18012KT 21/01 A2994 RMK A01 T02130008  RH  025%=      5-min Rain = 0
KAI1 191747Z 18011KT 21/01 A2994 RMK A01 T02120010  RH  026%=      5-min Rain = 0
KAI1 191748Z 19012KT 21/01 A2994 RMK A01 T02110009  RH  026%=      5-min Rain = 0
KAI1 191749Z 17011KT 21/01 A2994 RMK A01 T02120011  RH  026%=      5-min Rain = 0
KAI1 191750Z 19011KT 21/01 A2994 RMK A01 T02130011  RH  026%=      5-min Rain = 0
KAI1 191751Z 19011KT 21/01 A2994 RMK A01 T02130010  RH  026%=      5-min Rain = 0
KAI1 191752Z 19013KT 21/01 A2994 RMK A01 T02140009  RH  026%=      5-min Rain = 0
KAI1 191753Z 18011KT 21/01 A2994 RMK A01 T02140010  RH  026%=      5-min Rain = 0
KAI1 191754Z 17011KT 22/01 A2994 RMK A01 T02150011  RH  026%=      5-min Rain = 0
KAI1 191755Z 16011KT 22/01 A2993 RMK A01 T02160012  RH  026%=      5-min Rain = 0
KAI1 191756Z 17014KT 22/01 A2993 RMK A01 T02170011  RH  026%=      5-min Rain = 0
KAI1 191757Z 17013KT 22/01 A2993 RMK A01 T02170011  RH  026%=      5-min Rain = 0
KAI1 191758Z 16012KT 22/01 A2993 RMK A01 T02160012  RH  026%=      5-min Rain = 0
KAI1 191759Z 17014KT 22/01 A2993 RMK A01 T02160011  RH  026%=      5-min Rain = 0
KAI1 191800Z 18014KT 22/01 A2993 RMK A01 T02170011  RH  025%=      5-min Rain = 0
KAI1 191801Z 18013KT 22/01 A2993 RMK A01 T02160010  RH  026%=      5-min Rain = 0
KAI1 191802Z 18012KT 22/01 A2993 RMK A01 T02160012  RH  026%=      5-min Rain = 0
KAI1 191803Z 18012KT 22/01 A2993 RMK A01 T02170012  RH  026%=      5-min Rain = 0
KAI1 191804Z 18012KT 22/01 A2993 RMK A01 T02170011  RH  026%=      5-min Rain = 0
KAI1 191805Z 18012KT 22/01 A2993 RMK A01 T02190010  RH  025%=      5-min Rain = 0
KAI1 191806Z 17011KT 22/01 A2993 RMK A01 T02200011  RH  025%=      5-min Rain = 0
KAI1 191807Z 18012KT 22/01 A2993 RMK A01 T02210012  RH  025%=      5-min Rain = 0
KAI1 191808Z 18012KT 22/01 A2993 RMK A01 T02220011  RH  025%=      5-min Rain = 0
KAI1 191809Z 20015KT 22/01 A2992 RMK A01 T02220010  RH  025%=      5-min Rain = 0
KAI1 191810Z 20013KT 22/01 A2992 RMK A01 T02210006  RH  024%=      5-min Rain = 0
KAI1 191811Z 17014KT 22/01 A2992 RMK A01 T02220008  RH  024%=      5-min Rain = 0
KAI1 191812Z 18014KT 22/01 A2992 RMK A01 T02230009  RH  024%=      5-min Rain = 0
KAI1 191813Z 18013KT 22/01 A2992 RMK A01 T02220010  RH  025%=      5-min Rain = 0
KAI1 191814Z 18014KT 22/01 A2992 RMK A01 T02230009  RH  024%=      5-min Rain = 0
KAI1 191815Z 18014KT 22/01 A2992 RMK A01 T02230007  RH  024%=      5-min Rain = 0
KAI1 191816Z 18014KT 22/01 A2992 RMK A01 T02230008  RH  024%=      5-min Rain = 0
KAI1 191817Z 18015KT 22/01 A2992 RMK A01 T02240008  RH  024%=      5-min Rain = 0
KAI1 191818Z 18014KT 23/01 A2992 RMK A01 T02250007  RH  024%=      5-min Rain = 0
KAI1 191819Z 19014KT 23/01 A2992 RMK A01 T02260009  RH  024%=      5-min Rain = 0
KAI1 191820Z 18015KT 23/01 A2992 RMK A01 T02270007  RH  023%=      5-min Rain = 0
KAI1 191821Z 18013KT 23/01 A2992 RMK A01 T02260005  RH  023%=      5-min Rain = 0
KAI1 191822Z 18013KT 23/01 A2992 RMK A01 T02260005  RH  023%=      5-min Rain = 0
KAI1 191823Z 18013KT 23/01 A2992 RMK A01 T02290007  RH  023%=      5-min Rain = 0
KAI1 191824Z 19014KT 23/01 A2991 RMK A01 T02300006  RH  023%=      5-min Rain = 0
KAI1 191825Z 19015KT 23/00 A2991 RMK A01 T02310002  RH  022%=      5-min Rain = 0
KAI1 191826Z 20013KT 23/00 A2991 RMK A01 T02310002  RH  022%=      5-min Rain = 0
KAI1 191827Z 19012G17KT 23/01 A2991 RMK A01 T02310005  RH  022%=      5-min Rain = 0
KAI1 191828Z 19012KT 23/00 A2991 RMK A01 T02320003  RH  022%=      5-min Rain = 0
KAI1 191829Z 19015KT 23/01 A2991 RMK A01 T02330005  RH  022%=      5-min Rain = 0
KAI1 191830Z 19016KT 23/00 A2991 RMK A01 T02320003  RH  022%=      5-min Rain = 0
KAI1 191831Z 20017KT 23/00 A2991 RMK A01 T02310001  RH  022%=      5-min Rain = 0
KAI1 191832Z 20019KT 23/M00 A2991 RMK A01 T02301001  RH  022%=      5-min Rain = 0
KAI1 191833Z 19016KT 23/M00 A2991 RMK A01 T02301002  RH  021%=      5-min Rain = 0
KAI1 191834Z 19017KT 23/M00 A2991 RMK A01 T02311004  RH  021%=      5-min Rain = 0
KAI1 191835Z 19014G19KT 23/M00 A2991 RMK A01 T02321001  RH  021%=      5-min Rain = 0
KAI1 191836Z 19018KT 24/M00 A2991 RMK A01 T02351001  RH  021%=      5-min Rain = 0
KAI1 191837Z 20018KT 23/M00 A2991 RMK A01 T02341001  RH  021%=      5-min Rain = 0
KAI1 191838Z 19016KT 23/M00 A2991 RMK A01 T02341001  RH  021%=      5-min Rain = 0
KAI1 191839Z 19014KT 24/M00 A2991 RMK A01 T02351001  RH  021%=      5-min Rain = 0
KAI1 191840Z 20016KT 24/00 A2991 RMK A01 T02360002  RH  021%=      5-min Rain = 0
KAI1 191841Z 20017KT 24/00 A299 RMK A01 T02370002  RH  021%=      5-min Rain = 0
KAI1 191842Z 20018KT 24/00 A299 RMK A01 T02360001  RH  021%=      5-min Rain = 0
KAI1 191843Z 19016KT 23/M00 A2991 RMK A01 T02341002  RH  021%=      5-min Rain = 0
KAI1 191844Z 18016KT 23/00 A299 RMK A01 T02340002  RH  022%=      5-min Rain = 0
KAI1 191845Z 18015KT 23/00 A299 RMK A01 T02330003  RH  022%=      5-min Rain = 0
KAI1 191846Z 18016KT 23/00 A299 RMK A01 T02330002  RH  022%=      5-min Rain = 0
KAI1 191847Z 19014KT 23/00 A299 RMK A01 T02330002  RH  022%=      5-min Rain = 0
KAI1 191848Z 19015KT 24/00 A299 RMK A01 T02350004  RH  022%=      5-min Rain = 0
KAI1 191849Z 18016KT 24/00 A299 RMK A01 T02360003  RH  021%=      5-min Rain = 0
KAI1 191850Z 18018KT 23/00 A299 RMK A01 T02340001  RH  021%=      5-min Rain = 0
KAI1 191851Z 18017KT 23/00 A299 RMK A01 T02320002  RH  022%=      5-min Rain = 0
KAI1 191852Z 19017KT 23/00 A299 RMK A01 T02310002  RH  022%=      5-min Rain = 0
KAI1 191853Z 19015G20KT 23/00 A299 RMK A01 T02330003  RH  022%=      5-min Rain = 0
KAI1 191854Z 19016KT 24/00 A299 RMK A01 T02360003  RH  021%=      5-min Rain = 0
KAI1 191855Z 18018KT 24/00 A299 RMK A01 T02350002  RH  021%=      5-min Rain = 0
KAI1 191856Z 19017KT 23/00 A299 RMK A01 T02330002  RH  022%=      5-min Rain = 0
KAI1 191857Z 19018KT 23/00 A299 RMK A01 T02310003  RH  022%=      5-min Rain = 0
KAI1 191858Z 20017KT 23/00 A299 RMK A01 T02310002  RH  022%=      5-min Rain = 0
KAI1 191859Z 19016KT 23/00 A2989 RMK A01 T02310004  RH  022%=      5-min Rain = 0
KAI1 191900Z 19015KT 23/01 A2989 RMK A01 T02310006  RH  023%=      5-min Rain = 0
KAI1 191901Z 19015KT 23/01 A2989 RMK A01 T02330007  RH  022%=      5-min Rain = 0
KAI1 191902Z 19014KT 23/01 A2989 RMK A01 T02340006  RH  022%=      5-min Rain = 0
KAI1 191903Z 19016KT 24/01 A2989 RMK A01 T02370007  RH  022%=      5-min Rain = 0
KAI1 191904Z 18016KT 24/00 A2989 RMK A01 T02370004  RH  022%=      5-min Rain = 0
KAI1 191905Z 18017G22KT 24/00 A2989 RMK A01 T02350004  RH  022%=      5-min Rain = 0
KAI1 191906Z 18017KT 23/00 A2989 RMK A01 T02330002  RH  022%=      5-min Rain = 0
KAI1 191907Z 20018KT 23/00 A2989 RMK A01 T02330001  RH  021%=      5-min Rain = 0
KAI1 191908Z 20014KT 23/00 A2989 RMK A01 T02330001  RH  021%=      5-min Rain = 0
KAI1 191909Z 20015KT 23/00 A2989 RMK A01 T02340004  RH  022%=      5-min Rain = 0
KAI1 191910Z 19014KT 24/00 A2989 RMK A01 T02360004  RH  022%=      5-min Rain = 0
KAI1 191911Z 19015KT 24/01 A2989 RMK A01 T02370005  RH  022%=      5-min Rain = 0
KAI1 191912Z 19015KT 24/00 A2989 RMK A01 T02360004  RH  022%=      5-min Rain = 0
KAI1 191913Z 19014KT 23/01 A2989 RMK A01 T02340005  RH  022%=      5-min Rain = 0
KAI1 191914Z 19016KT 23/00 A2989 RMK A01 T02330004  RH  022%=      5-min Rain = 0
KAI1 191915Z 19018G24KT 23/00 A2989 RMK A01 T02330004  RH  022%=      5-min Rain = 0
KAI1 191916Z 19019KT 24/00 A2989 RMK A01 T02360003  RH  022%=      5-min Rain = 0
KAI1 191917Z 19019KT 24/00 A2989 RMK A01 T02360002  RH  021%=      5-min Rain = 0
KAI1 191918Z 19017KT 24/00 A2988 RMK A01 T02360004  RH  022%=      5-min Rain = 0
KAI1 191919Z 19019KT 24/00 A2988 RMK A01 T02360003  RH  022%=      5-min Rain = 0
KAI1 191920Z 19017KT 23/00 A2988 RMK A01 T02340003  RH  022%=      5-min Rain = 0
KAI1 191921Z 19017KT 23/01 A2988 RMK A01 T02330005  RH  022%=      5-min Rain = 0
KAI1 191922Z 19014KT 23/01 A2988 RMK A01 T02340007  RH  022%=      5-min Rain = 0
KAI1 191923Z 18016KT 24/01 A2988 RMK A01 T02350008  RH  022%=      5-min Rain = 0
KAI1 191924Z 18017KT 24/01 A2988 RMK A01 T02380009  RH  022%=      5-min Rain = 0
KAI1 191925Z 18016G22KT 24/01 A2988 RMK A01 T02380008  RH  022%=      5-min Rain = 0
KAI1 191926Z 19018KT 24/01 A2988 RMK A01 T02380007  RH  022%=      5-min Rain = 0
KAI1 191927Z 18018KT 24/01 A2988 RMK A01 T02370005  RH  022%=      5-min Rain = 0
KAI1 191928Z 19019KT 24/01 A2988 RMK A01 T02360006  RH  022%=      5-min Rain = 0
KAI1 191929Z 18017G22KT 24/01 A2988 RMK A01 T02350005  RH  022%=      5-min Rain = 0
KAI1 191930Z 18018KT 24/01 A2988 RMK A01 T02360006  RH  022%=      5-min Rain = 0
KAI1 191931Z 18017KT 24/01 A2988 RMK A01 T02350007  RH  022%=      5-min Rain = 0
KAI1 191932Z 18016KT 24/01 A2987 RMK A01 T02350008  RH  022%=      5-min Rain = 0
KAI1 191933Z 19017KT 24/01 A2987 RMK A01 T02380008  RH  022%=      5-min Rain = 0
KAI1 191934Z 19017KT 24/01 A2987 RMK A01 T02400009  RH  022%=      5-min Rain = 0
KAI1 191935Z 19018KT 24/01 A2987 RMK A01 T02410008  RH  022%=      5-min Rain = 0
KAI1 191936Z 20017G22KT 24/01 A2987 RMK A01 T02410006  RH  021%=      5-min Rain = 0
KAI1 191937Z 20018KT 24/01 A2987 RMK A01 T02400006  RH  021%=      5-min Rain = 0
KAI1 191938Z 19016KT 24/01 A2987 RMK A01 T02400007  RH  022%=      5-min Rain = 0
KAI1 191939Z 20019KT 24/01 A2987 RMK A01 T02400007  RH  021%=      5-min Rain = 0
KAI1 191940Z 20021KT 24/01 A2987 RMK A01 T02390006  RH  022%=      5-min Rain = 0
KAI1 191941Z 20020KT 24/01 A2987 RMK A01 T02370005  RH  022%=      5-min Rain = 0
KAI1 191942Z 20016KT 24/01 A2987 RMK A01 T02370007  RH  022%=      5-min Rain = 0
KAI1 191943Z 19019KT 24/01 A2987 RMK A01 T02390008  RH  022%=      5-min Rain = 0
KAI1 191944Z 19016KT 24/01 A2987 RMK A01 T02400007  RH  021%=      5-min Rain = 0
KAI1 191945Z 19018G24KT 24/01 A2987 RMK A01 T02420008  RH  021%=      5-min Rain = 0
KAI1 191946Z 20019G25KT 24/01 A2987 RMK A01 T02420008  RH  021%=      5-min Rain = 0
KAI1 191947Z 19020KT 24/00 A2987 RMK A01 T02410004  RH  021%=      5-min Rain = 0
KAI1 191948Z 19022KT 24/00 A2987 RMK A01 T02390003  RH  021%=      5-min Rain = 0
KAI1 191949Z 19018KT 24/00 A2987 RMK A01 T02370003  RH  021%=      5-min Rain = 0
KAI1 191950Z 19019G24KT 24/01 A2987 RMK A01 T02390005  RH  021%=      5-min Rain = 0
KAI1 191951Z 19021G26KT 24/00 A2987 RMK A01 T02400003  RH  021%=      5-min Rain = 0
KAI1 191952Z 19019G26KT 24/00 A2987 RMK A01 T02400003  RH  021%=      5-min Rain = 0
KAI1 191953Z 18021KT 24/00 A2987 RMK A01 T02410003  RH  021%=      5-min Rain = 0
KAI1 191954Z 19022KT 24/00 A2987 RMK A01 T02400003  RH  021%=      5-min Rain = 0
KAI1 191955Z 19020KT 24/00 A2987 RMK A01 T02390003  RH  021%=      5-min Rain = 0
KAI1 191956Z 19017KT 24/00 A2987 RMK A01 T02390003  RH  021%=      5-min Rain = 0
KAI1 191957Z 19019G24KT 24/00 A2987 RMK A01 T02390004  RH  021%=      5-min Rain = 0
KAI1 191958Z 19021KT 24/00 A2986 RMK A01 T02390004  RH  021%=      5-min Rain = 0
KAI1 191959Z 19017KT 24/01 A2986 RMK A01 T02380005  RH  021%=      5-min Rain = 0
KAI1 192000Z 19016KT 24/01 A2986 RMK A01 T02400006  RH  021%=      5-min Rain = 0
KAI1 192001Z 19019KT 24/01 A2986 RMK A01 T02420007  RH  021%=      5-min Rain = 0
KAI1 192002Z 19020KT 24/01 A2986 RMK A01 T02420008  RH  021%=      5-min Rain = 0
KAI1 192003Z 19019KT 24/01 A2986 RMK A01 T02410007  RH  021%=      5-min Rain = 0
KAI1 192004Z 19017KT 24/01 A2986 RMK A01 T02390007  RH  022%=      5-min Rain = 0
KAI1 192005Z 20019G24KT 24/01 A2986 RMK A01 T02400007  RH  022%=      5-min Rain = 0
KAI1 192006Z 20020KT 24/00 A2986 RMK A01 T02390004  RH  021%=      5-min Rain = 0
KAI1 192007Z 20016KT 24/00 A2986 RMK A01 T02360004  RH  022%=      5-min Rain = 0
KAI1 192008Z 18018G24KT 24/01 A2986 RMK A01 T02370005  RH  022%=      5-min Rain = 0
KAI1 192009Z 19020KT 24/00 A2986 RMK A01 T02350004  RH  022%=      5-min Rain = 0
KAI1 192010Z 20017KT 23/00 A2986 RMK A01 T02300003  RH  022%=      5-min Rain = 0
KAI1 192011Z 20017KT 23/00 A2986 RMK A01 T02290004  RH  022%=      5-min Rain = 0
KAI1 192012Z 21016KT 23/00 A2986 RMK A01 T02310004  RH  022%=      5-min Rain = 0
KAI1 192013Z 21018KT 23/00 A2986 RMK A01 T02320003  RH  022%=      5-min Rain = 0
KAI1 192014Z 21016G21KT 23/00 A2986 RMK A01 T02310003  RH  022%=      5-min Rain = 0
KAI1 192015Z 20017KT 23/01 A2986 RMK A01 T02320005  RH  022%=      5-min Rain = 0
KAI1 192016Z 20017KT 23/01 A2986 RMK A01 T02330005  RH  022%=      5-min Rain = 0
KAI1 192017Z 19016G21KT 24/01 A2986 RMK A01 T02350007  RH  022%=      5-min Rain = 0
KAI1 192018Z 19021KT 24/01 A2986 RMK A01 T02370005  RH  022%=      5-min Rain = 0
KAI1 192019Z 18017KT 24/01 A2985 RMK A01 T02370006  RH  022%=      5-min Rain = 0
KAI1 192020Z 18018KT 24/01 A2985 RMK A01 T02390006  RH  021%=      5-min Rain = 0
KAI1 192021Z 20015KT 24/01 A2986 RMK A01 T02400006  RH  021%=      5-min Rain = 0
KAI1 192022Z 20017KT 24/01 A2985 RMK A01 T02410007  RH  021%=      5-min Rain = 0
KAI1 192023Z 19021KT 24/01 A2985 RMK A01 T02410006  RH  021%=      5-min Rain = 0
KAI1 192024Z 19022KT 24/01 A2985 RMK A01 T02410005  RH  021%=      5-min Rain = 0
KAI1 192025Z 19018G24KT 24/00 A2985 RMK A01 T02390004  RH  021%=      5-min Rain = 0
KAI1 192026Z 19020KT 24/00 A2985 RMK A01 T02380004  RH  021%=      5-min Rain = 0
KAI1 192027Z 19019KT 24/00 A2985 RMK A01 T02380004  RH  021%=      5-min Rain = 0
KAI1 192028Z 20017KT 24/01 A2985 RMK A01 T02400005  RH  021%=      5-min Rain = 0
KAI1 192029Z 19019KT 24/00 A2985 RMK A01 T02410004  RH  021%=      5-min Rain = 0
KAI1 192030Z 20018KT 24/00 A2985 RMK A01 T02410004  RH  021%=      5-min Rain = 0
KAI1 192031Z 20019KT 24/00 A2985 RMK A01 T02400003  RH  021%=      5-min Rain = 0
KAI1 192032Z 20016G21KT 24/00 A2985 RMK A01 T02410002  RH  021%=      5-min Rain = 0
KAI1 192033Z 19017KT 24/00 A2985 RMK A01 T02420003  RH  021%=      5-min Rain = 0
KAI1 192034Z 19013KT 24/00 A2985 RMK A01 T02410003  RH  021%=      5-min Rain = 0
KAI1 192035Z 19017KT 24/00 A2985 RMK A01 T02410004  RH  021%=      5-min Rain = 0
KAI1 192036Z 19017KT 24/00 A2985 RMK A01 T02410003  RH  021%=      5-min Rain = 0
KAI1 192037Z 20017G22KT 24/00 A2985 RMK A01 T02430003  RH  021%=      5-min Rain = 0
KAI1 192038Z 20016KT 24/00 A2985 RMK A01 T02440003  RH  021%=      5-min Rain = 0
KAI1 192039Z 20017KT 25/00 A2985 RMK A01 T02450002  RH  020%=      5-min Rain = 0
KAI1 192040Z 20017KT 24/00 A2985 RMK A01 T02440002  RH  020%=      5-min Rain = 0
KAI1 192041Z 20018KT 24/00 A2985 RMK A01 T02430002  RH  020%=      5-min Rain = 0
KAI1 192042Z 19019KT 24/00 A2985 RMK A01 T02430000  RH  020%=      5-min Rain = 0
KAI1 192043Z 19019KT 24/00 A2985 RMK A01 T02420000  RH  020%=      5-min Rain = 0
KAI1 192044Z 19020KT 24/M00 A2985 RMK A01 T02421001  RH  020%=      5-min Rain = 0
KAI1 192045Z 19022KT 24/M00 A2984 RMK A01 T02411001  RH  020%=      5-min Rain = 0
KAI1 192046Z 19017G22KT 24/M00 A2985 RMK A01 T02411001  RH  020%=      5-min Rain = 0
KAI1 192047Z 20014KT 24/00 A2985 RMK A01 T02420000  RH  020%=      5-min Rain = 0
KAI1 192048Z 20019KT 24/00 A2984 RMK A01 T024400-0  RH  020%=      5-min Rain = 0
KAI1 192049Z 20014KT 24/00 A2984 RMK A01 T02440000  RH  020%=      5-min Rain = 0
KAI1 192050Z 19015KT 25/00 A2984 RMK A01 T02450002  RH  020%=      5-min Rain = 0
KAI1 192051Z 20017KT 25/00 A2984 RMK A01 T02470001  RH  020%=      5-min Rain = 0
KAI1 192052Z 20019G24KT 25/M00 A2984 RMK A01 T02461001  RH  020%=      5-min Rain = 0
KAI1 192053Z 19018G24KT 24/M00 A2984 RMK A01 T02441002  RH  020%=      5-min Rain = 0
KAI1 192054Z 19018KT 24/M00 A2984 RMK A01 T02431002  RH  020%=      5-min Rain = 0
KAI1 192055Z 19015KT 24/M00 A2984 RMK A01 T02421002  RH  020%=      5-min Rain = 0
KAI1 192056Z 20019KT 24/M00 A2984 RMK A01 T02421001  RH  020%=      5-min Rain = 0
KAI1 192057Z 21017KT 24/M00 A2984 RMK A01 T02431001  RH  020%=      5-min Rain = 0
KAI1 192058Z 21016KT 24/M00 A2984 RMK A01 T02431002  RH  020%=      5-min Rain = 0
KAI1 192059Z 21016G21KT 24/M00 A2984 RMK A01 T02421002  RH  020%=      5-min Rain = 0
KAI1 192100Z 20016KT 24/M00 A2984 RMK A01 T02441002  RH  020%=      5-min Rain = 0
KAI1 192101Z 19019KT 25/M00 A2984 RMK A01 T02451002  RH  020%=      5-min Rain = 0
KAI1 192102Z 19019KT 25/M00 A2984 RMK A01 T02451004  RH  019%=      5-min Rain = 0
KAI1 192103Z 19018KT 24/M00 A2984 RMK A01 T02441004  RH  019%=      5-min Rain = 0
KAI1 192104Z 19019KT 24/M01 A2984 RMK A01 T02431005  RH  019%=      5-min Rain = 0
KAI1 192105Z 19019KT 24/M01 A2984 RMK A01 T02421005  RH  020%=      5-min Rain = 0
KAI1 192106Z 19018KT 24/M01 A2984 RMK A01 T02421005  RH  020%=      5-min Rain = 0
KAI1 192107Z 18017KT 24/M00 A2984 RMK A01 T02411003  RH  020%=      5-min Rain = 0
KAI1 192108Z 19017KT 24/M00 A2984 RMK A01 T02421002  RH  020%=      5-min Rain = 0
KAI1 192109Z 19018KT 24/M00 A2984 RMK A01 T02431002  RH  020%=      5-min Rain = 0
KAI1 192110Z 20017KT 24/M00 A2984 RMK A01 T02431003  RH  020%=      5-min Rain = 0
KAI1 192111Z 20018KT 24/M00 A2984 RMK A01 T02441003  RH  020%=      5-min Rain = 0
KAI1 192112Z 20019KT 24/M00 A2984 RMK A01 T02441004  RH  019%=      5-min Rain = 0
KAI1 192113Z 20019KT 24/M01 A2984 RMK A01 T02441005  RH  019%=      5-min Rain = 0
KAI1 192114Z 19018KT 24/M01 A2984 RMK A01 T02441005  RH  019%=      5-min Rain = 0
KAI1 192115Z 21019KT 24/M01 A2984 RMK A01 T02441005  RH  019%=      5-min Rain = 0
KAI1 192116Z 21017KT 25/M00 A2983 RMK A01 T02451004  RH  019%=      5-min Rain = 0
KAI1 192117Z 21014KT 25/M00 A2984 RMK A01 T02451003  RH  019%=      5-min Rain = 0
KAI1 192118Z 20016KT 25/M00 A2984 RMK A01 T02471001  RH  019%=      5-min Rain = 0
KAI1 192119Z 19015KT 25/M00 A2984 RMK A01 T02481002  RH  019%=      5-min Rain = 0
KAI1 192120Z 20018KT 25/M00 A2984 RMK A01 T02471003  RH  019%=      5-min Rain = 0
KAI1 192121Z 20017KT 25/M00 A2983 RMK A01 T02461004  RH  019%=      5-min Rain = 0
KAI1 192122Z 20015KT 25/M00 A2983 RMK A01 T02451004  RH  019%=      5-min Rain = 0
KAI1 192123Z 18015KT 25/M00 A2983 RMK A01 T02461003  RH  019%=      5-min Rain = 0
KAI1 192124Z 19015G21KT 25/M00 A2983 RMK A01 T02461002  RH  019%=      5-min Rain = 0
KAI1 192125Z 20012KT 25/M00 A2983 RMK A01 T02461001  RH  020%=      5-min Rain = 0
KAI1 192126Z 19012KT 25/00 A2983 RMK A01 T02480000  RH  020%=      5-min Rain = 0
KAI1 192127Z 19016KT 25/M00 A2983 RMK A01 T02481001  RH  019%=      5-min Rain = 0
KAI1 192128Z 18019KT 25/M00 A2983 RMK A01 T02461003  RH  019%=      5-min Rain = 0
KAI1 192129Z 19018KT 24/M00 A2983 RMK A01 T02431003  RH  020%=      5-min Rain = 0
KAI1 192130Z 19016KT 24/M00 A2983 RMK A01 T02411002  RH  020%=      5-min Rain = 0
KAI1 192131Z 20018KT 24/M00 A2983 RMK A01 T02411002  RH  020%=      5-min Rain = 0
KAI1 192132Z 20015KT 24/M00 A2983 RMK A01 T02411002  RH  020%=      5-min Rain = 0
KAI1 192133Z 20014KT 24/M00 A2983 RMK A01 T02411001  RH  020%=      5-min Rain = 0
KAI1 192134Z 20017KT 24/M00 A2983 RMK A01 T02421001  RH  020%=      5-min Rain = 0
KAI1 192135Z 19015KT 24/M00 A2983 RMK A01 T02421002  RH  020%=      5-min Rain = 0
KAI1 192136Z 19015KT 24/M00 A2983 RMK A01 T02421001  RH  020%=      5-min Rain = 0
KAI1 192137Z 19017KT 24/M00 A2983 RMK A01 T02421002  RH  020%=      5-min Rain = 0
KAI1 192138Z 19015KT 24/M00 A2983 RMK A01 T02421002  RH  020%=      5-min Rain = 0
KAI1 192139Z 20015KT 24/M00 A2983 RMK A01 T02411002  RH  020%=      5-min Rain = 0
KAI1 192140Z 20013KT 24/M00 A2983 RMK A01 T02411001  RH  020%=      5-min Rain = 0
KAI1 192141Z 21013KT 24/M00 A2983 RMK A01 T02411002  RH  020%=      5-min Rain = 0
KAI1 192142Z 20013KT 24/M00 A2983 RMK A01 T02411002  RH  020%=      5-min Rain = 0
KAI1 192143Z 19012G17KT 24/M00 A2983 RMK A01 T02411001  RH  020%=      5-min Rain = 0
KAI1 192144Z 18015KT 24/00 A2983 RMK A01 T02420000  RH  020%=      5-min Rain = 0
KAI1 192145Z 19015KT 24/M00 A2983 RMK A01 T02431001  RH  020%=      5-min Rain = 0
KAI1 192146Z 19018KT 24/M00 A2983 RMK A01 T02421002  RH  020%=      5-min Rain = 0
KAI1 192147Z 20016KT 24/M00 A2983 RMK A01 T02411003  RH  020%=      5-min Rain = 0
KAI1 192148Z 19016KT 24/M00 A2983 RMK A01 T02401002  RH  020%=      5-min Rain = 0
KAI1 192149Z 19015G20KT 24/M00 A2983 RMK A01 T02401002  RH  020%=      5-min Rain = 0
KAI1 192150Z 19015KT 24/M00 A2983 RMK A01 T02401001  RH  020%=      5-min Rain = 0
KAI1 192151Z 19016KT 24/M00 A2983 RMK A01 T02411001  RH  020%=      5-min Rain = 0
KAI1 192152Z 19016KT 24/M00 A2983 RMK A01 T02411001  RH  020%=      5-min Rain = 0
KAI1 192153Z 20016KT 24/M00 A2983 RMK A01 T02401001  RH  020%=      5-min Rain = 0
KAI1 192154Z 20015KT 24/M00 A2983 RMK A01 T02401001  RH  020%=      5-min Rain = 0
KAI1 192155Z 19016KT 24/M00 A2983 RMK A01 T02401001  RH  020%=      5-min Rain = 0
KAI1 192156Z 19014KT 24/00 A2983 RMK A01 T024000-0  RH  020%=      5-min Rain = 0
KAI1 192157Z 19016KT 24/00 A2983 RMK A01 T02400001  RH  021%=      5-min Rain = 0
KAI1 192158Z 19014KT 24/00 A2983 RMK A01 T02400001  RH  021%=      5-min Rain = 0
KAI1 192159Z 18015KT 24/00 A2983 RMK A01 T02390001  RH  021%=      5-min Rain = 0
KAI1 192200Z 18016KT 24/00 A2983 RMK A01 T02400001  RH  021%=      5-min Rain = 0
KAI1 192201Z 18014KT 24/00 A2983 RMK A01 T02400001  RH  021%=      5-min Rain = 0
KAI1 192202Z 18015KT 24/00 A2983 RMK A01 T02400001  RH  021%=      5-min Rain = 0
KAI1 192203Z 18015KT 24/00 A2983 RMK A01 T023900-0  RH  021%=      5-min Rain = 0
KAI1 192204Z 18015KT 24/00 A2983 RMK A01 T02390001  RH  021%=      5-min Rain = 0
KAI1 192205Z 20017KT 24/00 A2983 RMK A01 T02390001  RH  021%=      5-min Rain = 0
KAI1 192206Z 20016KT 24/M00 A2983 RMK A01 T02361001  RH  021%=      5-min Rain = 0
KAI1 192207Z 19011KT 23/00 A2983 RMK A01 T023400-0  RH  021%=      5-min Rain = 0
KAI1 192208Z 19011KT 23/00 A2983 RMK A01 T02330001  RH  021%=      5-min Rain = 0
KAI1 192209Z 18015KT 23/00 A2983 RMK A01 T02330001  RH  022%=      5-min Rain = 0
KAI1 192210Z 19013G18KT 23/00 A2983 RMK A01 T023300-0  RH  021%=      5-min Rain = 0
KAI1 192211Z 19012KT 23/00 A2983 RMK A01 T02340000  RH  021%=      5-min Rain = 0
KAI1 192212Z 19015KT 24/00 A2983 RMK A01 T02350000  RH  021%=      5-min Rain = 0
KAI1 192213Z 19013KT 24/00 A2983 RMK A01 T02360000  RH  021%=      5-min Rain = 0
KAI1 192214Z 19013KT 24/00 A2983 RMK A01 T02370002  RH  021%=      5-min Rain = 0
KAI1 192215Z 18012KT 24/00 A2983 RMK A01 T02370003  RH  021%=      5-min Rain = 0
KAI1 192216Z 18014KT 24/00 A2983 RMK A01 T02380003  RH  021%=      5-min Rain = 0
KAI1 192217Z 18013KT 24/00 A2983 RMK A01 T02370004  RH  021%=      5-min Rain = 0
KAI1 192218Z 18014KT 24/00 A2983 RMK A01 T02370004  RH  022%=      5-min Rain = 0
KAI1 192219Z 18013KT 24/00 A2983 RMK A01 T02370004  RH  022%=      5-min Rain = 0
KAI1 192220Z 19015KT 24/00 A2983 RMK A01 T02370004  RH  022%=      5-min Rain = 0
KAI1 192221Z 18013KT 24/00 A2983 RMK A01 T02360004  RH  022%=      5-min Rain = 0
KAI1 192222Z 18015KT 24/00 A2983 RMK A01 T02360004  RH  022%=      5-min Rain = 0
KAI1 192223Z 18016KT 24/00 A2983 RMK A01 T02360003  RH  022%=      5-min Rain = 0
KAI1 192224Z 18014KT 24/00 A2983 RMK A01 T02360004  RH  022%=      5-min Rain = 0
KAI1 192225Z 18014KT 24/01 A2983 RMK A01 T02360005  RH  022%=      5-min Rain = 0
KAI1 192226Z 18012KT 24/01 A2983 RMK A01 T02350005  RH  022%=      5-min Rain = 0
KAI1 192227Z 19015KT 23/00 A2983 RMK A01 T02340004  RH  022%=      5-min Rain = 0
KAI1 192228Z 18014KT 23/01 A2983 RMK A01 T02330005  RH  022%=      5-min Rain = 0
KAI1 192229Z 19014KT 23/00 A2983 RMK A01 T02320004  RH  022%=      5-min Rain = 0
KAI1 192230Z 19017KT 23/01 A2983 RMK A01 T02310005  RH  022%=      5-min Rain = 0
KAI1 192231Z 19014KT 23/00 A2983 RMK A01 T02310004  RH  022%=      5-min Rain = 0
KAI1 192232Z 19014KT 23/01 A2983 RMK A01 T02300005  RH  023%=      5-min Rain = 0
KAI1 192233Z 18012KT 23/01 A2983 RMK A01 T02300006  RH  023%=      5-min Rain = 0
KAI1 192234Z 18012KT 23/01 A2983 RMK A01 T02310006  RH  023%=      5-min Rain = 0
KAI1 192235Z 18012KT 23/01 A2983 RMK A01 T02310007  RH  023%=      5-min Rain = 0
KAI1 192236Z 18011KT 23/01 A2983 RMK A01 T02310008  RH  023%=      5-min Rain = 0
KAI1 192237Z 18010KT 23/01 A2983 RMK A01 T02310008  RH  023%=      5-min Rain = 0
KAI1 192238Z 18014KT 23/01 A2983 RMK A01 T02300008  RH  023%=      5-min Rain = 0
KAI1 192239Z 19014KT 23/01 A2982 RMK A01 T02300007  RH  023%=      5-min Rain = 0
KAI1 192240Z 18012KT 23/01 A2982 RMK A01 T02290007  RH  023%=      5-min Rain = 0
KAI1 192241Z 18013KT 23/01 A2982 RMK A01 T02290007  RH  023%=      5-min Rain = 0
KAI1 192242Z 18012KT 23/01 A2982 RMK A01 T02280007  RH  023%=      5-min Rain = 0
KAI1 192243Z 18013KT 23/01 A2982 RMK A01 T02280006  RH  023%=      5-min Rain = 0
KAI1 192244Z 18012KT 23/01 A2982 RMK A01 T02280006  RH  023%=      5-min Rain = 0
KAI1 192245Z 17013KT 23/01 A2982 RMK A01 T02270006  RH  023%=      5-min Rain = 0
KAI1 192246Z 18013KT 23/01 A2982 RMK A01 T02270005  RH  023%=      5-min Rain = 0
KAI1 192247Z 18014KT 23/00 A2982 RMK A01 T02270004  RH  023%=      5-min Rain = 0
KAI1 192248Z 18013KT 23/01 A2982 RMK A01 T02270005  RH  023%=      5-min Rain = 0
KAI1 192249Z 18016KT 23/01 A2982 RMK A01 T02270005  RH  023%=      5-min Rain = 0
KAI1 192250Z 18014KT 23/00 A2982 RMK A01 T02270004  RH  023%=      5-min Rain = 0
KAI1 192251Z 18012KT 23/01 A2982 RMK A01 T02260005  RH  023%=      5-min Rain = 0
KAI1 192252Z 18013KT 23/00 A2982 RMK A01 T02260004  RH  023%=      5-min Rain = 0
KAI1 192253Z 17012KT 23/01 A2982 RMK A01 T02250005  RH  023%=      5-min Rain = 0
KAI1 192254Z 18011KT 22/01 A2982 RMK A01 T02240005  RH  023%=      5-min Rain = 0
KAI1 192255Z 17012KT 22/01 A2982 RMK A01 T02220006  RH  024%=      5-min Rain = 0
KAI1 192256Z 17012KT 22/01 A2982 RMK A01 T02200007  RH  024%=      5-min Rain = 0
KAI1 192257Z 17012KT 22/01 A2982 RMK A01 T02200008  RH  025%=      5-min Rain = 0
KAI1 192258Z 17012KT 22/01 A2982 RMK A01 T02190009  RH  025%=      5-min Rain = 0
KAI1 192259Z 17013KT 22/01 A2982 RMK A01 T02170009  RH  025%=      5-min Rain = 0
KAI1 192300Z 17011KT 22/01 A2982 RMK A01 T02160010  RH  025%=      5-min Rain = 0
KAI1 192301Z 17010KT 22/01 A2982 RMK A01 T02150010  RH  026%=      5-min Rain = 0
KAI1 192302Z 17012KT 21/01 A2982 RMK A01 T02140011  RH  026%=      5-min Rain = 0
KAI1 192303Z 17012KT 21/01 A2982 RMK A01 T02130011  RH  026%=      5-min Rain = 0
KAI1 192304Z 17012KT 21/01 A2982 RMK A01 T02120011  RH  026%=      5-min Rain = 0
KAI1 192305Z 17012KT 21/01 A2982 RMK A01 T02100011  RH  027%=      5-min Rain = 0
KAI1 192306Z 17011KT 21/01 A2982 RMK A01 T02090011  RH  027%=      5-min Rain = 0
KAI1 192307Z 17010KT 21/01 A2982 RMK A01 T02070011  RH  027%=      5-min Rain = 0
KAI1 192308Z 17010KT 21/01 A2982 RMK A01 T02050011  RH  028%=      5-min Rain = 0
KAI1 192309Z 17010KT 20/01 A2982 RMK A01 T02040012  RH  028%=      5-min Rain = 0
KAI1 192310Z 17010KT 20/01 A2982 RMK A01 T02030012  RH  028%=      5-min Rain = 0
KAI1 192311Z 17010KT 20/01 A2982 RMK A01 T02020012  RH  028%=      5-min Rain = 0
KAI1 192312Z 17009KT 20/01 A2982 RMK A01 T02010012  RH  028%=      5-min Rain = 0
KAI1 192313Z 17010KT 20/01 A2982 RMK A01 T02000012  RH  029%=      5-min Rain = 0
KAI1 192314Z 17010KT 20/01 A2982 RMK A01 T01990011  RH  029%=      5-min Rain = 0
KAI1 192315Z 17009KT 20/01 A2982 RMK A01 T01980012  RH  029%=      5-min Rain = 0
KAI1 192316Z 17009KT 20/01 A2982 RMK A01 T01960011  RH  029%=      5-min Rain = 0
KAI1 192317Z 16010KT 20/01 A2982 RMK A01 T01950011  RH  029%=      5-min Rain = 0
KAI1 192318Z 16011KT 20/01 A2982 RMK A01 T01950011  RH  029%=      5-min Rain = 0
KAI1 192319Z 16012KT 19/01 A2982 RMK A01 T01940011  RH  029%=      5-min Rain = 0
KAI1 192320Z 16012KT 20/01 A2982 RMK A01 T01950011  RH  029%=      5-min Rain = 0
KAI1 192321Z 17011KT 20/01 A2982 RMK A01 T01950011  RH  029%=      5-min Rain = 0
KAI1 192322Z 17011KT 20/01 A2982 RMK A01 T01950011  RH  029%=      5-min Rain = 0
KAI1 192323Z 16011KT 20/01 A2982 RMK A01 T01960010  RH  029%=      5-min Rain = 0
KAI1 192324Z 16011KT 20/01 A2982 RMK A01 T01960011  RH  029%=      5-min Rain = 0
KAI1 192325Z 17011KT 20/01 A2982 RMK A01 T01950011  RH  029%=      5-min Rain = 0
KAI1 192326Z 17011KT 20/01 A2982 RMK A01 T01950011  RH  029%=      5-min Rain = 0
KAI1 192327Z 16011KT 19/01 A2982 RMK A01 T01940011  RH  029%=      5-min Rain = 0
KAI1 192328Z 17010KT 19/01 A2982 RMK A01 T01930011  RH  030%=      5-min Rain = 0
KAI1 192329Z 17011KT 19/01 A2982 RMK A01 T01920011  RH  030%=      5-min Rain = 0
KAI1 192330Z 16011KT 19/01 A2982 RMK A01 T01920012  RH  030%=      5-min Rain = 0
KAI1 192331Z 17010KT 19/01 A2982 RMK A01 T01900011  RH  030%=      5-min Rain = 0
KAI1 192332Z 16011KT 19/01 A2982 RMK A01 T01890011  RH  030%=      5-min Rain = 0
KAI1 192333Z 17010KT 19/01 A2982 RMK A01 T01880012  RH  031%=      5-min Rain = 0
KAI1 192334Z 17010KT 19/01 A2983 RMK A01 T01870012  RH  031%=      5-min Rain = 0
KAI1 192335Z 17010KT 19/01 A2982 RMK A01 T01860012  RH  031%=      5-min Rain = 0
KAI1 192336Z 17010KT 19/01 A2983 RMK A01 T01850012  RH  031%=      5-min Rain = 0
KAI1 192337Z 17011KT 18/01 A2982 RMK A01 T01840012  RH  032%=      5-min Rain = 0
KAI1 192338Z 16010KT 18/01 A2982 RMK A01 T01830013  RH  032%=      5-min Rain = 0
KAI1 192339Z 17010KT 18/01 A2982 RMK A01 T01820013  RH  032%=      5-min Rain = 0
KAI1 192340Z 16010KT 18/01 A2982 RMK A01 T01810013  RH  032%=      5-min Rain = 0
KAI1 192341Z 17010KT 18/01 A2982 RMK A01 T01800013  RH  033%=      5-min Rain = 0
KAI1 192342Z 17010KT 18/01 A2983 RMK A01 T01790014  RH  033%=      5-min Rain = 0
KAI1 192343Z 17010KT 18/01 A2983 RMK A01 T01790014  RH  033%=      5-min Rain = 0
KAI1 192344Z 16010KT 18/01 A2983 RMK A01 T01780014  RH  033%=      5-min Rain = 0
KAI1 192345Z 17010KT 18/01 A2983 RMK A01 T01770014  RH  033%=      5-min Rain = 0
KAI1 192346Z 17010KT 18/01 A2983 RMK A01 T01770014  RH  033%=      5-min Rain = 0
KAI1 192347Z 16010KT 18/01 A2983 RMK A01 T01760014  RH  034%=      5-min Rain = 0
KAI1 192348Z 16010KT 18/01 A2983 RMK A01 T01750014  RH  034%=      5-min Rain = 0
KAI1 192349Z 16010KT 18/01 A2983 RMK A01 T01750014  RH  034%=      5-min Rain = 0
KAI1 192350Z 16010KT 17/02 A2983 RMK A01 T01740015  RH  034%=      5-min Rain = 0
KAI1 192351Z 16010KT 17/02 A2983 RMK A01 T01730015  RH  034%=      5-min Rain = 0
KAI1 192352Z 16011KT 17/02 A2983 RMK A01 T01720015  RH  035%=      5-min Rain = 0
KAI1 192353Z 16010KT 17/02 A2983 RMK A01 T01720015  RH  035%=      5-min Rain = 0
KAI1 192354Z 16010KT 17/02 A2983 RMK A01 T01710015  RH  035%=      5-min Rain = 0
KAI1 192355Z 16010KT 17/02 A2983 RMK A01 T01710016  RH  035%=      5-min Rain = 0
KAI1 192356Z 17010KT 17/02 A2983 RMK A01 T01710016  RH  035%=      5-min Rain = 0
KAI1 192357Z 17010KT 17/02 A2983 RMK A01 T01700016  RH  035%=      5-min Rain = 0
KAI1 192358Z 17010KT 17/02 A2983 RMK A01 T01700016  RH  036%=      5-min Rain = 0
KAI1 192359Z 16010KT 17/02 A2983 RMK A01 T01690016  RH  036%=      5-min Rain = 0
KAI1 200000Z 16010KT 17/02 A2983 RMK A01 T01680016  RH  036%=      5-min Rain = 0
KAI1 200001Z 16009KT 17/02 A2983 RMK A01 T01670016  RH  036%=      5-min Rain = 0
KAI1 200002Z 16009KT 17/02 A2983 RMK A01 T01660016  RH  036%=      5-min Rain = 0
KAI1 200003Z 16009KT 17/02 A2983 RMK A01 T01650016  RH  037%=      5-min Rain = 0
KAI1 200004Z 16009KT 16/02 A2983 RMK A01 T01640016  RH  037%=      5-min Rain = 0
KAI1 200005Z 16009KT 16/02 A2983 RMK A01 T01630016  RH  037%=      5-min Rain = 0
KAI1 200006Z 16009KT 16/02 A2983 RMK A01 T01620016  RH  037%=      5-min Rain = 0
KAI1 200007Z 16009KT 16/02 A2983 RMK A01 T01610016  RH  038%=      5-min Rain = 0
KAI1 200008Z 16009KT 16/02 A2983 RMK A01 T01600016  RH  038%=      5-min Rain = 0
KAI1 200009Z 16009KT 16/02 A2983 RMK A01 T01590016  RH  038%=      5-min Rain = 0
KAI1 200010Z 16009KT 16/02 A2983 RMK A01 T01590016  RH  038%=      5-min Rain = 0
KAI1 200011Z 16009KT 16/02 A2983 RMK A01 T01580016  RH  038%=      5-min Rain = 0
KAI1 200012Z 16009KT 16/02 A2983 RMK A01 T01580016  RH  038%=      5-min Rain = 0
KAI1 200013Z 16009KT 16/02 A2983 RMK A01 T01570016  RH  039%=      5-min Rain = 0
KAI1 200014Z 16009KT 16/02 A2983 RMK A01 T01560016  RH  039%=      5-min Rain = 0
KAI1 200015Z 16009KT 16/02 A2983 RMK A01 T01560016  RH  039%=      5-min Rain = 0
KAI1 200016Z 16008KT 16/02 A2983 RMK A01 T01560017  RH  039%=      5-min Rain = 0
KAI1 200017Z 16009KT 16/02 A2983 RMK A01 T01550017  RH  039%=      5-min Rain = 0
KAI1 200018Z 16008KT 16/02 A2983 RMK A01 T01550016  RH  039%=      5-min Rain = 0
KAI1 200019Z 16009KT 15/02 A2983 RMK A01 T01540017  RH  039%=      5-min Rain = 0
KAI1 200020Z 16009KT 15/02 A2983 RMK A01 T01540016  RH  039%=      5-min Rain = 0
KAI1 200021Z 16009KT 15/02 A2983 RMK A01 T01530016  RH  040%=      5-min Rain = 0
KAI1 200022Z 16009KT 15/02 A2983 RMK A01 T01520016  RH  040%=      5-min Rain = 0
KAI1 200023Z 16009KT 15/02 A2983 RMK A01 T01510016  RH  040%=      5-min Rain = 0
KAI1 200024Z 16009KT 15/02 A2983 RMK A01 T01500016  RH  040%=      5-min Rain = 0
KAI1 200025Z 16010KT 15/02 A2983 RMK A01 T01490016  RH  040%=      5-min Rain = 0
KAI1 200026Z 16010KT 15/02 A2983 RMK A01 T01490016  RH  040%=      5-min Rain = 0
KAI1 200027Z 16010KT 15/02 A2983 RMK A01 T01480016  RH  041%=      5-min Rain = 0
KAI1 200028Z 16009KT 15/02 A2983 RMK A01 T01480016  RH  041%=      5-min Rain = 0
KAI1 200029Z 16009KT 15/02 A2983 RMK A01 T01480016  RH  041%=      5-min Rain = 0
KAI1 200030Z 16009KT 15/02 A2983 RMK A01 T01480017  RH  041%=      5-min Rain = 0
KAI1 200031Z 16010KT 15/02 A2983 RMK A01 T01470017  RH  041%=      5-min Rain = 0
KAI1 200032Z 16009KT 15/02 A2983 RMK A01 T01460017  RH  042%=      5-min Rain = 0
KAI1 200033Z 16010KT 15/02 A2983 RMK A01 T01450016  RH  042%=      5-min Rain = 0
KAI1 200034Z 16010KT 15/02 A2983 RMK A01 T01450016  RH  041%=      5-min Rain = 0
KAI1 200035Z 16010KT 15/02 A2983 RMK A01 T01450016  RH  041%=      5-min Rain = 0
KAI1 200036Z 16010KT 15/02 A2983 RMK A01 T01450016  RH  041%=      5-min Rain = 0
KAI1 200037Z 16010KT 15/02 A2983 RMK A01 T01450016  RH  041%=      5-min Rain = 0
KAI1 200038Z 16009KT 15/02 A2983 RMK A01 T01450015  RH  041%=      5-min Rain = 0
KAI1 200039Z 16010KT 15/02 A2983 RMK A01 T01450015  RH  041%=      5-min Rain = 0
KAI1 200040Z 16009KT 15/02 A2983 RMK A01 T01450015  RH  041%=      5-min Rain = 0
KAI1 200041Z 16009KT 15/02 A2983 RMK A01 T01450015  RH  041%=      5-min Rain = 0
KAI1 200042Z 16009KT 15/02 A2983 RMK A01 T01450015  RH  042%=      5-min Rain = 0
KAI1 200043Z 16009KT 14/02 A2983 RMK A01 T01440015  RH  042%=      5-min Rain = 0
KAI1 200044Z 16009KT 14/02 A2983 RMK A01 T01440015  RH  042%=      5-min Rain = 0
KAI1 200045Z 16009KT 14/02 A2983 RMK A01 T01430015  RH  042%=      5-min Rain = 0
KAI1 200046Z 16009KT 14/02 A2983 RMK A01 T01430015  RH  042%=      5-min Rain = 0
KAI1 200047Z 16009KT 14/02 A2983 RMK A01 T01430015  RH  042%=      5-min Rain = 0
KAI1 200048Z 16009KT 14/02 A2983 RMK A01 T01430015  RH  042%=      5-min Rain = 0
KAI1 200049Z 16009KT 14/02 A2983 RMK A01 T01430015  RH  042%=      5-min Rain = 0
KAI1 200050Z 16009KT 14/02 A2983 RMK A01 T01430015  RH  042%=      5-min Rain = 0
KAI1 200051Z 16009KT 14/02 A2983 RMK A01 T01430016  RH  042%=      5-min Rain = 0
KAI1 200052Z 16009KT 14/02 A2983 RMK A01 T01430016  RH  042%=      5-min Rain = 0
KAI1 200053Z 16009KT 14/02 A2983 RMK A01 T01430016  RH  042%=      5-min Rain = 0
KAI1 200054Z 16009KT 14/02 A2983 RMK A01 T01430017  RH  042%=      5-min Rain = 0
KAI1 200055Z 16010KT 14/02 A2983 RMK A01 T01430017  RH  042%=      5-min Rain = 0
KAI1 200056Z 16010KT 14/02 A2983 RMK A01 T01430017  RH  042%=      5-min Rain = 0
KAI1 200057Z 16010KT 14/02 A2983 RMK A01 T01420017  RH  043%=      5-min Rain = 0
KAI1 200058Z 16010KT 14/02 A2983 RMK A01 T01420016  RH  042%=      5-min Rain = 0
KAI1 200059Z 16010KT 14/02 A2983 RMK A01 T01420016  RH  042%=      5-min Rain = 0
KAI1 200100Z 16010KT 14/02 A2983 RMK A01 T01410016  RH  042%=      5-min Rain = 0
KAI1 200101Z 16010KT 14/02 A2983 RMK A01 T01410015  RH  043%=      5-min Rain = 0
KAI1 200102Z 17010KT 14/02 A2983 RMK A01 T01400015  RH  043%=      5-min Rain = 0
KAI1 200103Z 17010KT 14/02 A2983 RMK A01 T01390015  RH  043%=      5-min Rain = 0
KAI1 200104Z 17010KT 14/02 A2983 RMK A01 T01390015  RH  043%=      5-min Rain = 0
KAI1 200105Z 17010KT 14/02 A2983 RMK A01 T01390015  RH  043%=      5-min Rain = 0
KAI1 200106Z 17010KT 14/02 A2983 RMK A01 T01380015  RH  043%=      5-min Rain = 0
KAI1 200107Z 17010KT 14/01 A2983 RMK A01 T01380014  RH  043%=      5-min Rain = 0
KAI1 200108Z 17010KT 14/02 A2983 RMK A01 T01380015  RH  043%=      5-min Rain = 0
KAI1 200109Z 17010KT 14/01 A2983 RMK A01 T01380014  RH  043%=      5-min Rain = 0
KAI1 200110Z 17011KT 14/01 A2983 RMK A01 T01380014  RH  043%=      5-min Rain = 0
KAI1 200111Z 17011KT 14/02 A2983 RMK A01 T01380015  RH  043%=      5-min Rain = 0
KAI1 200112Z 17011KT 14/01 A2983 RMK A01 T01380014  RH  043%=      5-min Rain = 0
KAI1 200113Z 17011KT 14/01 A2983 RMK A01 T01370014  RH  043%=      5-min Rain = 0
KAI1 200114Z 17011KT 14/02 A2983 RMK A01 T01370015  RH  043%=      5-min Rain = 0
KAI1 200115Z 17011KT 14/02 A2983 RMK A01 T01370015  RH  043%=      5-min Rain = 0
KAI1 200116Z 17011KT 14/01 A2983 RMK A01 T01370014  RH  043%=      5-min Rain = 0
KAI1 200117Z 17011KT 14/02 A2983 RMK A01 T01370015  RH  043%=      5-min Rain = 0
KAI1 200118Z 17011KT 14/01 A2983 RMK A01 T01370014  RH  043%=      5-min Rain = 0
KAI1 200119Z 17012KT 14/01 A2983 RMK A01 T01370014  RH  043%=      5-min Rain = 0
KAI1 200120Z 17012KT 14/02 A2983 RMK A01 T01380015  RH  043%=      5-min Rain = 0
KAI1 200121Z 17011KT 14/02 A2983 RMK A01 T01390015  RH  043%=      5-min Rain = 0
KAI1 200122Z 17011KT 14/02 A2983 RMK A01 T01390015  RH  043%=      5-min Rain = 0
KAI1 200123Z 17012KT 14/02 A2983 RMK A01 T01400016  RH  043%=      5-min Rain = 0
KAI1 200124Z 17012KT 14/02 A2983 RMK A01 T01410016  RH  043%=      5-min Rain = 0
KAI1 200125Z 18012KT 14/02 A2983 RMK A01 T01410016  RH  042%=      5-min Rain = 0
KAI1 200126Z 18013KT 14/02 A2983 RMK A01 T01420016  RH  042%=      5-min Rain = 0
KAI1 200127Z 17012KT 14/02 A2983 RMK A01 T01420016  RH  042%=      5-min Rain = 0
KAI1 200128Z 17012KT 14/02 A2983 RMK A01 T01430016  RH  042%=      5-min Rain = 0
KAI1 200129Z 17011KT 14/02 A2983 RMK A01 T01430016  RH  042%=      5-min Rain = 0
KAI1 200130Z 17011KT 14/02 A2983 RMK A01 T01420016  RH  042%=      5-min Rain = 0
KAI1 200131Z 17012KT 14/02 A2983 RMK A01 T01420016  RH  042%=      5-min Rain = 0
KAI1 200132Z 18011KT 14/02 A2983 RMK A01 T01420016  RH  042%=      5-min Rain = 0
KAI1 200133Z 17012KT 14/02 A2983 RMK A01 T01420016  RH  042%=      5-min Rain = 0
KAI1 200134Z 17012KT 14/02 A2983 RMK A01 T01420016  RH  042%=      5-min Rain = 0
KAI1 200135Z 17012KT 14/02 A2983 RMK A01 T01420016  RH  042%=      5-min Rain = 0
KAI1 200136Z 17012KT 14/02 A2983 RMK A01 T01430016  RH  042%=      5-min Rain = 0
KAI1 200137Z 17013KT 14/02 A2982 RMK A01 T01430017  RH  042%=      5-min Rain = 0
KAI1 200138Z 17013KT 14/02 A2982 RMK A01 T01440017  RH  042%=      5-min Rain = 0
KAI1 200139Z 17013KT 14/02 A2982 RMK A01 T01440017  RH  042%=      5-min Rain = 0
KAI1 200140Z 17013KT 15/02 A2982 RMK A01 T01450017  RH  042%=      5-min Rain = 0
KAI1 200141Z 17013KT 15/02 A2982 RMK A01 T01450017  RH  042%=      5-min Rain = 0
KAI1 200142Z 17013KT 15/02 A2982 RMK A01 T01450017  RH  042%=      5-min Rain = 0
KAI1 200143Z 17013KT 15/02 A2982 RMK A01 T01450017  RH  042%=      5-min Rain = 0
KAI1 200144Z 17013KT 15/02 A2982 RMK A01 T01450017  RH  042%=      5-min Rain = 0
KAI1 200145Z 17012KT 15/02 A2982 RMK A01 T01450018  RH  042%=      5-min Rain = 0
KAI1 200146Z 17012KT 15/02 A2982 RMK A01 T01450017  RH  042%=      5-min Rain = 0
KAI1 200147Z 17012KT 14/02 A2982 RMK A01 T01440017  RH  042%=      5-min Rain = 0
KAI1 200148Z 17012KT 14/02 A2982 RMK A01 T01440018  RH  042%=      5-min Rain = 0
KAI1 200149Z 17012KT 14/02 A2982 RMK A01 T01430017  RH  042%=      5-min Rain = 0
KAI1 200150Z 17012KT 14/02 A2982 RMK A01 T01420017  RH  043%=      5-min Rain = 0
KAI1 200151Z 17012KT 14/02 A2982 RMK A01 T01400016  RH  043%=      5-min Rain = 0
KAI1 200152Z 17012KT 14/02 A2982 RMK A01 T01380016  RH  043%=      5-min Rain = 0
KAI1 200153Z 17012KT 14/02 A2982 RMK A01 T01370016  RH  044%=      5-min Rain = 0
KAI1 200154Z 17012KT 14/02 A2983 RMK A01 T01360016  RH  044%=      5-min Rain = 0
KAI1 200155Z 17013KT 13/02 A2983 RMK A01 T01340016  RH  044%=      5-min Rain = 0
KAI1 200156Z 17013KT 13/02 A2983 RMK A01 T01340016  RH  045%=      5-min Rain = 0
KAI1 200157Z 17012KT 13/02 A2983 RMK A01 T01330016  RH  045%=      5-min Rain = 0
KAI1 200158Z 17013KT 13/02 A2983 RMK A01 T01320015  RH  045%=      5-min Rain = 0
KAI1 200159Z 17013KT 13/02 A2983 RMK A01 T01330016  RH  045%=      5-min Rain = 0
KAI1 200200Z 17013KT 13/02 A2983 RMK A01 T01330016  RH  045%=      5-min Rain = 0
KAI1 200201Z 17012KT 13/02 A2983 RMK A01 T01330016  RH  045%=      5-min Rain = 0
KAI1 200202Z 17012KT 13/02 A2983 RMK A01 T01320016  RH  045%=      5-min Rain = 0
KAI1 200203Z 17012KT 13/02 A2983 RMK A01 T01320016  RH  045%=      5-min Rain = 0
KAI1 200204Z 17011KT 13/02 A2983 RMK A01 T01320016  RH  045%=      5-min Rain = 0
KAI1 200205Z 17012KT 13/02 A2983 RMK A01 T01320017  RH  046%=      5-min Rain = 0
KAI1 200206Z 17012KT 13/02 A2983 RMK A01 T01310017  RH  046%=      5-min Rain = 0
KAI1 200207Z 17012KT 13/02 A2983 RMK A01 T01310017  RH  046%=      5-min Rain = 0
KAI1 200208Z 17011KT 13/02 A2983 RMK A01 T01310017  RH  046%=      5-min Rain = 0
KAI1 200209Z 17012KT 13/02 A2983 RMK A01 T01310017  RH  046%=      5-min Rain = 0
KAI1 200210Z 17012KT 13/02 A2983 RMK A01 T01300017  RH  046%=      5-min Rain = 0
KAI1 200211Z 17012KT 13/02 A2983 RMK A01 T01300017  RH  046%=      5-min Rain = 0
KAI1 200212Z 17012KT 13/02 A2983 RMK A01 T01300017  RH  046%=      5-min Rain = 0
KAI1 200213Z 17011KT 13/02 A2983 RMK A01 T01290016  RH  046%=      5-min Rain = 0
KAI1 200214Z 17011KT 13/02 A2983 RMK A01 T01280016  RH  047%=      5-min Rain = 0
KAI1 200215Z 17011KT 13/02 A2983 RMK A01 T01270017  RH  047%=      5-min Rain = 0
KAI1 200216Z 18010KT 13/02 A2983 RMK A01 T01260017  RH  047%=      5-min Rain = 0
KAI1 200217Z 17011KT 13/02 A2983 RMK A01 T01250017  RH  047%=      5-min Rain = 0
KAI1 200218Z 17011KT 13/02 A2983 RMK A01 T01250017  RH  048%=      5-min Rain = 0
KAI1 200219Z 17011KT 13/02 A2983 RMK A01 T01250017  RH  048%=      5-min Rain = 0
KAI1 200220Z 17011KT 12/02 A2983 RMK A01 T01240017  RH  048%=      5-min Rain = 0
KAI1 200221Z 17011KT 12/02 A2983 RMK A01 T01240017  RH  048%=      5-min Rain = 0
KAI1 200222Z 17011KT 12/02 A2983 RMK A01 T01230017  RH  048%=      5-min Rain = 0
KAI1 200223Z 17011KT 12/02 A2983 RMK A01 T01230017  RH  048%=      5-min Rain = 0
KAI1 200224Z 17010KT 12/02 A2983 RMK A01 T01220017  RH  048%=      5-min Rain = 0
KAI1 200225Z 17010KT 12/02 A2983 RMK A01 T01220017  RH  049%=      5-min Rain = 0
KAI1 200226Z 17010KT 12/02 A2983 RMK A01 T01220017  RH  049%=      5-min Rain = 0
KAI1 200227Z 17011KT 12/02 A2983 RMK A01 T01210017  RH  049%=      5-min Rain = 0
KAI1 200228Z 17010KT 12/02 A2983 RMK A01 T01210017  RH  049%=      5-min Rain = 0
KAI1 200229Z 17010KT 12/02 A2983 RMK A01 T01200017  RH  049%=      5-min Rain = 0
KAI1 200230Z 17010KT 12/02 A2983 RMK A01 T01200017  RH  050%=      5-min Rain = 0
KAI1 200231Z 17010KT 12/02 A2983 RMK A01 T01190017  RH  050%=      5-min Rain = 0
KAI1 200232Z 17010KT 12/02 A2983 RMK A01 T01190018  RH  050%=      5-min Rain = 0
KAI1 200233Z 17010KT 12/02 A2983 RMK A01 T01190018  RH  050%=      5-min Rain = 0
KAI1 200234Z 17010KT 12/02 A2983 RMK A01 T01190018  RH  050%=      5-min Rain = 0
KAI1 200235Z 17009KT 12/02 A2983 RMK A01 T01180018  RH  050%=      5-min Rain = 0
KAI1 200236Z 17009KT 12/02 A2983 RMK A01 T01170018  RH  050%=      5-min Rain = 0
KAI1 200237Z 17009KT 12/02 A2983 RMK A01 T01170018  RH  051%=      5-min Rain = 0
KAI1 200238Z 17010KT 12/02 A2983 RMK A01 T01170018  RH  051%=      5-min Rain = 0
KAI1 200239Z 17010KT 12/02 A2983 RMK A01 T01170018  RH  051%=      5-min Rain = 0
KAI1 200240Z 17009KT 12/02 A2983 RMK A01 T01160018  RH  051%=      5-min Rain = 0
KAI1 200241Z 18009KT 12/02 A2983 RMK A01 T01160018  RH  051%=      5-min Rain = 0
KAI1 200242Z 17009KT 12/02 A2983 RMK A01 T01150018  RH  051%=      5-min Rain = 0
KAI1 200243Z 17009KT 12/02 A2983 RMK A01 T01150018  RH  051%=      5-min Rain = 0
KAI1 200244Z 17009KT 12/02 A2983 RMK A01 T01150017  RH  051%=      5-min Rain = 0
KAI1 200245Z 17009KT 11/02 A2983 RMK A01 T01140017  RH  051%=      5-min Rain = 0
KAI1 200246Z 17009KT 11/02 A2983 RMK A01 T01130017  RH  052%=      5-min Rain = 0
KAI1 200247Z 17009KT 11/02 A2983 RMK A01 T01130017  RH  052%=      5-min Rain = 0
KAI1 200248Z 17009KT 11/02 A2983 RMK A01 T01120017  RH  052%=      5-min Rain = 0
KAI1 200249Z 17010KT 11/02 A2983 RMK A01 T01120017  RH  052%=      5-min Rain = 0
KAI1 200250Z 17009KT 11/02 A2983 RMK A01 T01120017  RH  052%=      5-min Rain = 0
KAI1 200251Z 17009KT 11/02 A2983 RMK A01 T01120017  RH  052%=      5-min Rain = 0
KAI1 200252Z 17009KT 11/02 A2983 RMK A01 T01120017  RH  052%=      5-min Rain = 0
KAI1 200253Z 17009KT 11/02 A2983 RMK A01 T01120017  RH  052%=      5-min Rain = 0
KAI1 200254Z 17009KT 11/02 A2983 RMK A01 T01130017  RH  052%=      5-min Rain = 0
KAI1 200255Z 17009KT 11/02 A2983 RMK A01 T01130017  RH  052%=      5-min Rain = 0
KAI1 200256Z 17009KT 11/02 A2983 RMK A01 T01130017  RH  052%=      5-min Rain = 0
KAI1 200257Z 18009KT 11/02 A2983 RMK A01 T01130018  RH  052%=      5-min Rain = 0
KAI1 200258Z 17009KT 11/02 A2983 RMK A01 T01130018  RH  052%=      5-min Rain = 0
KAI1 200259Z 17008KT 11/02 A2983 RMK A01 T01130017  RH  052%=      5-min Rain = 0
KAI1 200300Z 17008KT 11/02 A2983 RMK A01 T01120017  RH  052%=      5-min Rain = 0
KAI1 200301Z 17008KT 11/02 A2983 RMK A01 T01120017  RH  052%=      5-min Rain = 0
KAI1 200302Z 17008KT 11/02 A2983 RMK A01 T01110017  RH  052%=      5-min Rain = 0
KAI1 200303Z 17009KT 11/02 A2983 RMK A01 T01110017  RH  052%=      5-min Rain = 0
KAI1 200304Z 17009KT 11/02 A2983 RMK A01 T01110017  RH  052%=      5-min Rain = 0
KAI1 200305Z 17009KT 11/02 A2983 RMK A01 T01110017  RH  052%=      5-min Rain = 0
KAI1 200306Z 17009KT 11/02 A2983 RMK A01 T01110017  RH  053%=      5-min Rain = 0
KAI1 200307Z 17009KT 11/02 A2983 RMK A01 T01100017  RH  052%=      5-min Rain = 0
KAI1 200308Z 17009KT 11/02 A2983 RMK A01 T01110017  RH  053%=      5-min Rain = 0
KAI1 200309Z 17009KT 11/02 A2983 RMK A01 T01110017  RH  053%=      5-min Rain = 0
KAI1 200310Z 17008KT 11/02 A2983 RMK A01 T01100017  RH  053%=      5-min Rain = 0
KAI1 200311Z 17008KT 11/02 A2983 RMK A01 T01110018  RH  053%=      5-min Rain = 0
KAI1 200312Z 16008KT 11/02 A2983 RMK A01 T01110018  RH  053%=      5-min Rain = 0
KAI1 200313Z 17008KT 11/02 A2983 RMK A01 T01110018  RH  053%=      5-min Rain = 0
KAI1 200314Z 17008KT 11/02 A2983 RMK A01 T01110018  RH  053%=      5-min Rain = 0
KAI1 200315Z 17008KT 11/02 A2983 RMK A01 T01110018  RH  053%=      5-min Rain = 0
KAI1 200316Z 18008KT 11/02 A2983 RMK A01 T01110018  RH  053%=      5-min Rain = 0
KAI1 200317Z 17009KT 11/02 A2983 RMK A01 T01110018  RH  053%=      5-min Rain = 0
KAI1 200318Z 17009KT 11/02 A2983 RMK A01 T01110019  RH  053%=      5-min Rain = 0
KAI1 200319Z 17009KT 11/02 A2983 RMK A01 T01110018  RH  053%=      5-min Rain = 0
KAI1 200320Z 17009KT 11/02 A2983 RMK A01 T01110019  RH  053%=      5-min Rain = 0
KAI1 200321Z 17009KT 11/02 A2983 RMK A01 T01110019  RH  053%=      5-min Rain = 0
KAI1 200322Z 17009KT 11/02 A2983 RMK A01 T01110019  RH  053%=      5-min Rain = 0
KAI1 200323Z 17009KT 11/02 A2983 RMK A01 T01120019  RH  053%=      5-min Rain = 0
KAI1 200324Z 17009KT 11/02 A2983 RMK A01 T01130019  RH  053%=      5-min Rain = 0
KAI1 200325Z 17010KT 11/02 A2983 RMK A01 T01130019  RH  052%=      5-min Rain = 0
KAI1 200326Z 17009KT 11/02 A2983 RMK A01 T01130019  RH  052%=      5-min Rain = 0
KAI1 200327Z 17010KT 11/02 A2983 RMK A01 T01140020  RH  052%=      5-min Rain = 0
KAI1 200328Z 17010KT 12/02 A2983 RMK A01 T01150020  RH  052%=      5-min Rain = 0
KAI1 200329Z 17010KT 12/02 A2983 RMK A01 T01160021  RH  052%=      5-min Rain = 0
KAI1 200330Z 17009KT 12/02 A2983 RMK A01 T01170021  RH  052%=      5-min Rain = 0
KAI1 200331Z 17009KT 12/02 A2983 RMK A01 T01170021  RH  052%=      5-min Rain = 0
KAI1 200332Z 17009KT 12/02 A2983 RMK A01 T01180022  RH  052%=      5-min Rain = 0
KAI1 200333Z 17010KT 12/02 A2983 RMK A01 T01190022  RH  051%=      5-min Rain = 0
KAI1 200334Z 17009KT 12/02 A2983 RMK A01 T01200022  RH  051%=      5-min Rain = 0
KAI1 200335Z 17009KT 12/02 A2983 RMK A01 T01200022  RH  051%=      5-min Rain = 0
KAI1 200336Z 17010KT 12/02 A2983 RMK A01 T01210023  RH  051%=      5-min Rain = 0
KAI1 200337Z 17009KT 12/02 A2983 RMK A01 T01220022  RH  051%=      5-min Rain = 0
KAI1 200338Z 18009KT 12/02 A2983 RMK A01 T01220023  RH  051%=      5-min Rain = 0
KAI1 200339Z 17009KT 12/02 A2983 RMK A01 T01220023  RH  051%=      5-min Rain = 0
KAI1 200340Z 18009KT 12/02 A2983 RMK A01 T01220023  RH  051%=      5-min Rain = 0
KAI1 200341Z 18009KT 12/02 A2983 RMK A01 T01230023  RH  050%=      5-min Rain = 0
KAI1 200342Z 18010KT 12/02 A2983 RMK A01 T01230023  RH  050%=      5-min Rain = 0
KAI1 200343Z 18009KT 12/02 A2983 RMK A01 T01230023  RH  051%=      5-min Rain = 0
KAI1 200344Z 18010KT 12/02 A2983 RMK A01 T01230023  RH  051%=      5-min Rain = 0
KAI1 200345Z 18009KT 12/02 A2983 RMK A01 T01230023  RH  051%=      5-min Rain = 0
KAI1 200346Z 18009KT 12/02 A2983 RMK A01 T01220023  RH  051%=      5-min Rain = 0
KAI1 200347Z 18010KT 12/02 A2983 RMK A01 T01220023  RH  051%=      5-min Rain = 0
KAI1 200348Z 18010KT 12/02 A2983 RMK A01 T01220024  RH  051%=      5-min Rain = 0
KAI1 200349Z 18009KT 12/02 A2983 RMK A01 T01220024  RH  051%=      5-min Rain = 0
KAI1 200350Z 18009KT 12/02 A2983 RMK A01 T01220024  RH  051%=      5-min Rain = 0
KAI1 200351Z 18009KT 12/02 A2983 RMK A01 T01210024  RH  051%=      5-min Rain = 0
KAI1 200352Z 18009KT 12/02 A2983 RMK A01 T01210024  RH  051%=      5-min Rain = 0
KAI1 200353Z 18009KT 12/02 A2983 RMK A01 T01200023  RH  052%=      5-min Rain = 0
KAI1 200354Z 18009KT 12/02 A2983 RMK A01 T01200023  RH  052%=      5-min Rain = 0
KAI1 200355Z 18009KT 12/02 A2983 RMK A01 T01190023  RH  052%=      5-min Rain = 0
KAI1 200356Z 18009KT 12/02 A2983 RMK A01 T01180023  RH  052%=      5-min Rain = 0
KAI1 200357Z 18009KT 12/02 A2983 RMK A01 T01180024  RH  052%=      5-min Rain = 0
KAI1 200358Z 18009KT 12/02 A2983 RMK A01 T01170024  RH  053%=      5-min Rain = 0
KAI1 200359Z 17008KT 12/02 A2983 RMK A01 T01170024  RH  053%=      5-min Rain = 0
KAI1 200400Z 17008KT 12/02 A2983 RMK A01 T01170024  RH  053%=      5-min Rain = 0
KAI1 200401Z 18008KT 12/02 A2983 RMK A01 T01170024  RH  053%=      5-min Rain = 0
KAI1 200402Z 18008KT 12/02 A2983 RMK A01 T01160024  RH  053%=      5-min Rain = 0
KAI1 200403Z 18008KT 12/02 A2983 RMK A01 T01160024  RH  053%=      5-min Rain = 0
KAI1 200404Z 17008KT 12/02 A2983 RMK A01 T01160024  RH  053%=      5-min Rain = 0
KAI1 200405Z 17008KT 12/02 A2983 RMK A01 T01160024  RH  053%=      5-min Rain = 0
KAI1 200406Z 18008KT 12/02 A2983 RMK A01 T01160024  RH  053%=      5-min Rain = 0
KAI1 200407Z 18009KT 12/02 A2983 RMK A01 T01160024  RH  053%=      5-min Rain = 0
KAI1 200408Z 18009KT 12/02 A2983 RMK A01 T01160024  RH  053%=      5-min Rain = 0
KAI1 200409Z 18010KT 12/02 A2983 RMK A01 T01160024  RH  053%=      5-min Rain = 0
KAI1 200410Z 18010KT 12/02 A2983 RMK A01 T01170024  RH  053%=      5-min Rain = 0
KAI1 200411Z 18010KT 12/02 A2983 RMK A01 T01170024  RH  053%=      5-min Rain = 0
KAI1 200412Z 18010KT 12/02 A2983 RMK A01 T01180024  RH  052%=      5-min Rain = 0
KAI1 200413Z 18010KT 12/02 A2983 RMK A01 T01190024  RH  052%=      5-min Rain = 0
KAI1 200414Z 18011KT 12/02 A2983 RMK A01 T01210024  RH  052%=      5-min Rain = 0
KAI1 200415Z 18011KT 12/03 A2983 RMK A01 T01230025  RH  051%=      5-min Rain = 0
KAI1 200416Z 18011KT 12/03 A2983 RMK A01 T01240025  RH  051%=      5-min Rain = 0
KAI1 200417Z 18011KT 13/03 A2983 RMK A01 T01250025  RH  051%=      5-min Rain = 0
KAI1 200418Z 18011KT 13/03 A2983 RMK A01 T01260026  RH  050%=      5-min Rain = 0
KAI1 200419Z 18011KT 13/03 A2983 RMK A01 T01270026  RH  050%=      5-min Rain = 0
KAI1 200420Z 18012KT 13/03 A2983 RMK A01 T01280026  RH  050%=      5-min Rain = 0
KAI1 200421Z 18011KT 13/03 A2983 RMK A01 T01280026  RH  050%=      5-min Rain = 0
KAI1 200422Z 18011KT 13/03 A2983 RMK A01 T01280026  RH  050%=      5-min Rain = 0
KAI1 200423Z 18011KT 13/03 A2983 RMK A01 T01290026  RH  050%=      5-min Rain = 0
KAI1 200424Z 18011KT 13/03 A2983 RMK A01 T01280027  RH  050%=      5-min Rain = 0
KAI1 200425Z 18011KT 13/03 A2983 RMK A01 T01300027  RH  050%=      5-min Rain = 0
KAI1 200426Z 18011KT 13/03 A2983 RMK A01 T01300027  RH  050%=      5-min Rain = 0
KAI1 200427Z 18011KT 13/03 A2983 RMK A01 T01300028  RH  050%=      5-min Rain = 0
KAI1 200428Z 18011KT 13/03 A2983 RMK A01 T01310028  RH  050%=      5-min Rain = 0
KAI1 200429Z 18011KT 13/03 A2983 RMK A01 T01310028  RH  050%=      5-min Rain = 0
KAI1 200430Z 18010KT 13/03 A2983 RMK A01 T01310028  RH  050%=      5-min Rain = 0
KAI1 200431Z 18010KT 13/03 A2983 RMK A01 T01300028  RH  050%=      5-min Rain = 0
KAI1 200432Z 18010KT 13/03 A2983 RMK A01 T01290028  RH  050%=      5-min Rain = 0
KAI1 200433Z 18010KT 13/03 A2983 RMK A01 T01290028  RH  050%=      5-min Rain = 0
KAI1 200434Z 18010KT 13/03 A2983 RMK A01 T01290029  RH  051%=      5-min Rain = 0
KAI1 200435Z 18011KT 13/03 A2983 RMK A01 T01280029  RH  051%=      5-min Rain = 0
KAI1 200436Z 18010KT 13/03 A2983 RMK A01 T01280029  RH  051%=      5-min Rain = 0
KAI1 200437Z 18010KT 13/03 A2983 RMK A01 T01280030  RH  051%=      5-min Rain = 0
KAI1 200438Z 18010KT 13/03 A2983 RMK A01 T01280030  RH  051%=      5-min Rain = 0
KAI1 200439Z 18011KT 13/03 A2983 RMK A01 T01280030  RH  051%=      5-min Rain = 0
KAI1 200440Z 18011KT 13/03 A2983 RMK A01 T01280031  RH  052%=      5-min Rain = 0
KAI1 200441Z 19012KT 13/03 A2983 RMK A01 T01280032  RH  052%=      5-min Rain = 0
KAI1 200442Z 19012KT 13/03 A2983 RMK A01 T01280032  RH  052%=      5-min Rain = 0
KAI1 200443Z 19011KT 13/03 A2983 RMK A01 T01280033  RH  052%=      5-min Rain = 0
KAI1 200444Z 19012KT 13/03 A2983 RMK A01 T01290034  RH  052%=      5-min Rain = 0
KAI1 200445Z 19012KT 13/04 A2983 RMK A01 T01300035  RH  052%=      5-min Rain = 0
KAI1 200446Z 19012KT 13/03 A2983 RMK A01 T01300034  RH  052%=      5-min Rain = 0
KAI1 200447Z 19013KT 13/04 A2983 RMK A01 T01300035  RH  052%=      5-min Rain = 0
KAI1 200448Z 18012KT 13/04 A2983 RMK A01 T01310036  RH  053%=      5-min Rain = 0
KAI1 200449Z 19013KT 13/04 A2983 RMK A01 T01320037  RH  053%=      5-min Rain = 0
KAI1 200450Z 19013KT 13/04 A2983 RMK A01 T01320037  RH  052%=      5-min Rain = 0
KAI1 200451Z 19012KT 13/04 A2983 RMK A01 T01330038  RH  052%=      5-min Rain = 0
KAI1 200452Z 19012KT 13/04 A2983 RMK A01 T01330038  RH  053%=      5-min Rain = 0
KAI1 200453Z 19012KT 13/04 A2983 RMK A01 T01330039  RH  053%=      5-min Rain = 0
KAI1 200454Z 19014KT 13/04 A2983 RMK A01 T01330039  RH  053%=      5-min Rain = 0
KAI1 200455Z 19012KT 14/04 A2983 RMK A01 T01350041  RH  053%=      5-min Rain = 0
KAI1 200456Z 19012KT 14/04 A2982 RMK A01 T01350041  RH  053%=      5-min Rain = 0
KAI1 200457Z 19012KT 14/04 A2982 RMK A01 T01350042  RH  053%=      5-min Rain = 0
KAI1 200458Z 19013KT 14/04 A2982 RMK A01 T01360043  RH  053%=      5-min Rain = 0
KAI1 200459Z 19014KT 14/05 A2982 RMK A01 T01380045  RH  053%=      5-min Rain = 0
KAI1 200500Z 19014KT 14/05 A2982 RMK A01 T01400046  RH  053%=      5-min Rain = 0
KAI1 200501Z 20016KT 14/05 A2983 RMK A01 T01410046  RH  053%=      5-min Rain = 0
KAI1 200502Z 19015KT 14/05 A2982 RMK A01 T01420047  RH  053%=      5-min Rain = 0
KAI1 200503Z 20014KT 14/05 A2983 RMK A01 T01430048  RH  053%=      5-min Rain = 0
KAI1 200504Z 19015KT 14/05 A2983 RMK A01 T01440048  RH  053%=      5-min Rain = 0
KAI1 200505Z 20016KT 14/05 A2983 RMK A01 T01440048  RH  053%=      5-min Rain = 0
KAI1 200506Z 19017KT 14/05 A2983 RMK A01 T01440049  RH  053%=      5-min Rain = 0
KAI1 200507Z 19018KT 15/05 A2983 RMK A01 T01460051  RH  053%=      5-min Rain = 0
KAI1 200508Z 19016KT 15/05 A2983 RMK A01 T01470051  RH  052%=      5-min Rain = 0
KAI1 200509Z 19015KT 15/05 A2983 RMK A01 T01480051  RH  052%=      5-min Rain = 0
KAI1 200510Z 20018KT 15/05 A2983 RMK A01 T01470051  RH  052%=      5-min Rain = 0
KAI1 200511Z 19016KT 15/05 A2983 RMK A01 T01480051  RH  052%=      5-min Rain = 0
KAI1 200512Z 19017KT 15/05 A2983 RMK A01 T01480051  RH  052%=      5-min Rain = 0
KAI1 200513Z 20015KT 15/05 A2983 RMK A01 T01490051  RH  052%=      5-min Rain = 0
KAI1 200514Z 19016KT 15/05 A2983 RMK A01 T01480052  RH  052%=      5-min Rain = 0
KAI1 200515Z 19016KT 15/05 A2983 RMK A01 T01480051  RH  052%=      5-min Rain = 0
KAI1 200516Z 20017KT 15/05 A2983 RMK A01 T01480051  RH  052%=      5-min Rain = 0
KAI1 200517Z 20016KT 15/05 A2983 RMK A01 T01480052  RH  052%=      5-min Rain = 0
KAI1 200518Z 20016KT 15/05 A2983 RMK A01 T01480052  RH  053%=      5-min Rain = 0
KAI1 200519Z 20017KT 15/05 A2983 RMK A01 T01470052  RH  053%=      5-min Rain = 0
KAI1 200520Z 20017KT 15/05 A2983 RMK A01 T01470052  RH  053%=      5-min Rain = 0
KAI1 200521Z 20016KT 15/05 A2983 RMK A01 T01470053  RH  053%=      5-min Rain = 0
KAI1 200522Z 20015KT 15/05 A2983 RMK A01 T01470053  RH  053%=      5-min Rain = 0
KAI1 200523Z 20016KT 15/05 A2983 RMK A01 T01470053  RH  053%=      5-min Rain = 0
KAI1 200524Z 20015KT 15/05 A2983 RMK A01 T01470054  RH  054%=      5-min Rain = 0
KAI1 200525Z 20015KT 15/05 A2983 RMK A01 T01460053  RH  054%=      5-min Rain = 0
KAI1 200526Z 19015KT 15/05 A2983 RMK A01 T01460053  RH  054%=      5-min Rain = 0
KAI1 200527Z 20015KT 15/05 A2983 RMK A01 T01460054  RH  054%=      5-min Rain = 0
KAI1 200528Z 19014KT 15/05 A2983 RMK A01 T01450054  RH  054%=      5-min Rain = 0
KAI1 200529Z 20014KT 14/05 A2983 RMK A01 T01440054  RH  054%=      5-min Rain = 0
KAI1 200530Z 20014KT 14/05 A2983 RMK A01 T01440054  RH  055%=      5-min Rain = 0
KAI1 200531Z 20014KT 14/05 A2983 RMK A01 T01440054  RH  055%=      5-min Rain = 0
KAI1 200532Z 19014KT 14/06 A2983 RMK A01 T01440055  RH  055%=      5-min Rain = 0
KAI1 200533Z 20014KT 14/06 A2983 RMK A01 T01440055  RH  055%=      5-min Rain = 0
KAI1 200534Z 20014KT 14/06 A2983 RMK A01 T01430055  RH  055%=      5-min Rain = 0
KAI1 200535Z 20014KT 14/06 A2983 RMK A01 T01430055  RH  055%=      5-min Rain = 0
KAI1 200536Z 20014KT 14/06 A2983 RMK A01 T01440055  RH  055%=      5-min Rain = 0
KAI1 200537Z 20014KT 14/06 A2983 RMK A01 T01440056  RH  055%=      5-min Rain = 0
KAI1 200538Z 20015KT 14/06 A2983 RMK A01 T01440056  RH  056%=      5-min Rain = 0
KAI1 200539Z 20015KT 14/06 A2984 RMK A01 T01440056  RH  056%=      5-min Rain = 0
KAI1 200540Z 20015KT 14/06 A2983 RMK A01 T01440056  RH  056%=      5-min Rain = 0
KAI1 200541Z 20014KT 14/06 A2983 RMK A01 T01440056  RH  056%=      5-min Rain = 0
KAI1 200542Z 20014KT 14/06 A2983 RMK A01 T01430056  RH  056%=      5-min Rain = 0
KAI1 200543Z 20014KT 14/06 A2983 RMK A01 T01440057  RH  056%=      5-min Rain = 0
KAI1 200544Z 20015KT 14/06 A2983 RMK A01 T01430057  RH  056%=      5-min Rain = 0
KAI1 200545Z 20014KT 14/06 A2983 RMK A01 T01430057  RH  056%=      5-min Rain = 0
KAI1 200546Z 20014KT 14/06 A2983 RMK A01 T01430057  RH  056%=      5-min Rain = 0
KAI1 200547Z 20013KT 14/06 A2983 RMK A01 T01430057  RH  056%=      5-min Rain = 0
KAI1 200548Z 20013KT 14/06 A2983 RMK A01 T01440058  RH  056%=      5-min Rain = 0
KAI1 200549Z 20012KT 14/06 A2983 RMK A01 T01430058  RH  056%=      5-min Rain = 0
KAI1 200550Z 20012KT 14/06 A2983 RMK A01 T01430058  RH  057%=      5-min Rain = 0
KAI1 200551Z 20012KT 14/06 A2983 RMK A01 T01430058  RH  057%=      5-min Rain = 0
KAI1 200552Z 19013KT 14/06 A2983 RMK A01 T01420058  RH  057%=      5-min Rain = 0
KAI1 200553Z 19012KT 14/06 A2983 RMK A01 T01420058  RH  057%=      5-min Rain = 0
KAI1 200554Z 20012KT 14/06 A2983 RMK A01 T01420058  RH  057%=      5-min Rain = 0
KAI1 200555Z 20011KT 14/06 A2983 RMK A01 T01410058  RH  057%=      5-min Rain = 0
KAI1 200556Z 20013KT 14/06 A2983 RMK A01 T01410058  RH  057%=      5-min Rain = 0
KAI1 200557Z 20011KT 14/06 A2983 RMK A01 T01410058  RH  057%=      5-min Rain = 0
KAI1 200558Z 19011KT 14/06 A2983 RMK A01 T01400058  RH  058%=      5-min Rain = 0
KAI1 200559Z 19011KT 14/06 A2983 RMK A01 T01400058  RH  058%=      5-min Rain = 0

Page generated in 0.1194 seconds.